M I D A S
Marine Information and Data Acquisition System
Tripno 1957 of the Zeeleeuw from 2010-09-15 06:25:38 to 2010-09-15 10:44:20
Back to CruiseResearch ActivitiesStationsMapUnderway DataData graphs

EquipmentUnitsComment
TimeDGPSUTC
LatitudeDGPSDM.mWGS84
LongitudeDGPSDM.mWGS84
TemperatureSBE03/SBE38deg celciusITS90
ConductivitySBE21S/mITS90
SalinitySBE21 Practical Salinity Units
ChlorophylAChelsea fluorimeterg/lCalibrated in Aceton
Missing or incorrect values are displayed as -999
Sea surface data collected by the RV Zeeleeuw from 2010-09-15 06:11:35 to 2010-09-15 10:53:31
                                                                                    Next 1000 lines
Time Latitude Longitude Temperature Conductivity Salinity ChlorophylA
2010-09-15 06:11:46 51°13.665 2°55.96 19.738 2.408213 16.36724 -0.861272
2010-09-15 06:11:51 51°13.665 2°55.961 19.7362 2.408213 16.367512 -0.896096
2010-09-15 06:11:55 51°13.664 2°55.961 19.74 2.408213 16.367512 -0.861272
2010-09-15 06:12:00 51°13.664 2°55.961 19.7382 2.408213 16.367512 -0.861272
2010-09-15 06:12:05 51°13.664 2°55.961 19.7308 2.408108 16.366729 -0.896096
2010-09-15 06:12:10 51°13.664 2°55.96 19.7345 2.408213 16.367512 -0.861272
2010-09-15 06:12:15 51°13.664 2°55.961 19.7392 2.408213 16.367512 -0.861272
2010-09-15 06:12:19 51°13.664 2°55.96 19.7388 2.408108 16.366729 -0.861272
2010-09-15 06:12:24 51°13.664 2°55.96 19.7319 2.408108 16.366729 -0.861272
2010-09-15 06:12:29 51°13.665 2°55.96 19.7188 2.408108 16.366729 -0.861272
2010-09-15 06:12:34 51°13.665 2°55.959 19.7181 2.408108 16.366729 -0.861272
2010-09-15 06:12:39 51°13.665 2°55.959 19.7247 2.408108 16.367002 -0.861272
2010-09-15 06:12:43 51°13.664 2°55.959 19.7351 2.408108 16.367002 -0.861272
2010-09-15 06:12:48 51°13.664 2°55.959 19.743 2.408108 16.367002 -0.861272
2010-09-15 06:12:53 51°13.664 2°55.959 19.7407 2.408108 16.367002 -0.861272
2010-09-15 06:12:58 51°13.664 2°55.959 19.7375 2.408108 16.367275 -0.861272
2010-09-15 06:13:03 51°13.664 2°55.959 19.7403 2.408108 16.367275 -0.896096
2010-09-15 06:13:08 51°13.664 2°55.959 19.7367 2.408108 16.367547 -0.861272
2010-09-15 06:13:13 51°13.664 2°55.959 19.7422 2.408108 16.367547 -0.861272
2010-09-15 06:13:17 51°13.664 2°55.959 19.7405 2.408003 16.367037 -0.896096
2010-09-15 06:13:23 51°13.664 2°55.959 19.7394 2.408108 16.368092 -0.861272
2010-09-15 06:13:27 51°13.664 2°55.96 19.7351 2.408108 16.36782 -0.861272
2010-09-15 06:13:32 51°13.664 2°55.96 19.7362 2.408108 16.36782 -0.896096
2010-09-15 06:13:37 51°13.664 2°55.96 19.7367 2.408003 16.36731 -0.861272
2010-09-15 06:13:43 51°13.664 2°55.96 19.7357 2.408003 16.36731 -0.861272
2010-09-15 06:13:47 51°13.664 2°55.96 19.7375 2.408003 16.36731 -0.896096
2010-09-15 06:13:52 51°13.664 2°55.96 19.7408 2.407897 16.366527 -0.896096
2010-09-15 06:13:57 51°13.664 2°55.96 19.7401 2.408003 16.367582 -0.861272
2010-09-15 06:14:02 51°13.664 2°55.959 19.741 2.408003 16.367582 -0.861272
2010-09-15 06:14:07 51°13.664 2°55.959 19.7426 2.407897 16.367344 -0.861272
2010-09-15 06:14:12 51°13.665 2°55.959 19.7417 2.407897 16.367344 -0.861272
2010-09-15 06:14:17 51°13.665 2°55.959 19.7397 2.408003 16.367855 -0.896096
2010-09-15 06:14:22 51°13.664 2°55.959 19.7402 2.407897 16.367072 -0.861272
2010-09-15 06:14:27 51°13.663 2°55.96 19.7421 2.408003 16.367582 -0.896096
2010-09-15 06:14:32 51°13.663 2°55.959 19.7414 2.407897 16.367072 -0.861272
2010-09-15 06:14:37 51°13.663 2°55.959 19.742 2.407897 16.367344 -0.896096
2010-09-15 06:14:43 51°13.663 2°55.959 19.7355 2.407897 16.367344 -0.896096
2010-09-15 06:14:47 51°13.663 2°55.959 19.735 2.407897 16.367344 -0.861272
2010-09-15 06:14:52 51°13.663 2°55.96 19.7383 2.407897 16.367344 -0.861272
2010-09-15 06:14:57 51°13.663 2°55.96 19.7401 2.407897 16.367617 -0.896096
2010-09-15 06:15:03 51°13.663 2°55.96 19.7411 2.407792 16.366834 -0.861272
2010-09-15 06:15:07 51°13.663 2°55.96 19.7449 2.407792 16.367107 -0.861272
2010-09-15 06:15:12 51°13.663 2°55.96 19.7448 2.407792 16.367107 -0.861272
2010-09-15 06:15:18 51°13.663 2°55.96 19.7446 2.407792 16.367107 -0.826448
2010-09-15 06:15:23 51°13.663 2°55.96 19.7442 2.407792 16.367107 -0.826448
2010-09-15 06:15:27 51°13.663 2°55.96 19.7391 2.407792 16.367379 -0.861272
2010-09-15 06:15:31 51°13.663 2°55.961 19.7239 2.407792 16.367379 -0.861272
2010-09-15 06:15:38 51°13.663 2°55.96 19.726 2.407792 16.367379 -0.896096
2010-09-15 06:15:43 51°13.663 2°55.96 19.723 2.407792 16.367379 -0.896096
2010-09-15 06:15:47 51°13.662 2°55.96 19.7329 2.407792 16.367107 -0.896096
2010-09-15 06:15:52 51°13.662 2°55.96 19.7392 2.407792 16.367652 -0.861272
2010-09-15 06:15:57 51°13.663 2°55.96 19.7417 2.407792 16.367652 -0.861272
2010-09-15 06:16:03 51°13.663 2°55.959 19.7433 2.407792 16.367652 -0.861272
2010-09-15 06:16:07 51°13.663 2°55.96 19.7453 2.407687 16.367142 -0.861272
2010-09-15 06:16:13 51°13.662 2°55.96 19.7431 2.407687 16.367142 -0.861272
2010-09-15 06:16:17 51°13.661 2°55.96 19.7352 2.407687 16.367414 -0.861272
2010-09-15 06:16:22 51°13.661 2°55.96 19.7291 2.407687 16.367414 -0.896096
2010-09-15 06:16:27 51°13.661 2°55.96 19.7332 2.407687 16.367142 -0.896096
2010-09-15 06:16:32 51°13.661 2°55.96 19.7385 2.407687 16.367414 -0.861272
2010-09-15 06:16:37 51°13.662 2°55.96 19.7455 2.407687 16.367687 -0.861272
2010-09-15 06:16:43 51°13.662 2°55.96 19.7404 2.407687 16.367687 -0.861272
2010-09-15 06:16:47 51°13.662 2°55.96 19.7382 2.407687 16.367687 -0.896096
2010-09-15 06:16:53 51°13.662 2°55.96 19.7463 2.407582 16.367177 -0.861272
2010-09-15 06:16:57 51°13.662 2°55.959 19.7417 2.407687 16.36796 -0.896096
2010-09-15 06:17:02 51°13.662 2°55.959 19.7402 2.407582 16.367177 -0.896096
2010-09-15 06:17:07 51°13.662 2°55.959 19.7427 2.407582 16.367449 -0.861272
2010-09-15 06:17:11 51°13.662 2°55.959 19.7469 2.407582 16.367449 -0.861272
2010-09-15 06:17:18 51°13.662 2°55.96 19.7428 2.407582 16.367449 -0.861272
2010-09-15 06:17:23 51°13.662 2°55.961 19.7417 2.407582 16.367449 -0.896096
2010-09-15 06:17:27 51°13.663 2°55.962 19.7445 2.407582 16.367449 -0.861272
2010-09-15 06:17:32 51°13.663 2°55.962 19.745 2.407582 16.367722 -0.861272
2010-09-15 06:17:38 51°13.663 2°55.963 19.7462 2.407477 16.366939 -0.861272
2010-09-15 06:17:43 51°13.663 2°55.963 19.7469 2.407477 16.366939 -0.861272
2010-09-15 06:17:47 51°13.662 2°55.963 19.7467 2.407582 16.367995 -0.861272
2010-09-15 06:17:52 51°13.663 2°55.962 19.743 2.407582 16.367995 -0.861272
2010-09-15 06:17:57 51°13.663 2°55.962 19.7455 2.407582 16.367722 -0.896096
2010-09-15 06:18:03 51°13.663 2°55.962 19.7521 2.407582 16.368267 -0.896096
2010-09-15 06:18:07 51°13.663 2°55.961 19.756 2.407477 16.367757 -0.896096
2010-09-15 06:18:12 51°13.663 2°55.962 19.7469 2.407477 16.367757 -0.896096
2010-09-15 06:18:17 51°13.663 2°55.961 19.7459 2.407477 16.367757 -0.896096
2010-09-15 06:18:22 51°13.663 2°55.961 19.7448 2.407477 16.36803 -0.861272
2010-09-15 06:18:27 51°13.663 2°55.962 19.7513 2.407477 16.367757 -0.826448
2010-09-15 06:18:33 51°13.663 2°55.962 19.7484 2.407477 16.36803 -0.861272
2010-09-15 06:18:37 51°13.663 2°55.962 19.7545 2.407477 16.367757 -0.861272
2010-09-15 06:18:42 51°13.663 2°55.962 19.7482 2.407477 16.367757 -0.861272
2010-09-15 06:18:47 51°13.664 2°55.962 19.7491 2.407371 16.367247 -0.896096
2010-09-15 06:18:52 51°13.663 2°55.962 19.7535 2.407371 16.36752 -0.861272
2010-09-15 06:18:57 51°13.662 2°55.962 19.7508 2.407371 16.36752 -0.896096
2010-09-15 06:19:02 51°13.662 2°55.962 19.7465 2.407371 16.36752 -0.861272
2010-09-15 06:19:07 51°13.662 2°55.962 19.7547 2.407371 16.367792 -0.861272
2010-09-15 06:19:12 51°13.662 2°55.962 19.7569 2.407371 16.367792 -0.861272
2010-09-15 06:19:18 51°13.662 2°55.962 19.7526 2.407371 16.367792 -0.861272
2010-09-15 06:19:23 51°13.662 2°55.962 19.7495 2.407371 16.368065 -0.896096
2010-09-15 06:19:27 51°13.662 2°55.962 19.7495 2.407371 16.368065 -0.861272
2010-09-15 06:19:32 51°13.662 2°55.961 19.7473 2.407371 16.368065 -0.861272
2010-09-15 06:19:37 51°13.662 2°55.96 19.7483 2.407266 16.367555 -0.861272
2010-09-15 06:19:43 51°13.662 2°55.961 19.7524 2.407266 16.367555 -0.861272
2010-09-15 06:19:47 51°13.662 2°55.961 19.7564 2.407266 16.367555 -0.861272
2010-09-15 06:19:52 51°13.662 2°55.961 19.7535 2.407266 16.367827 -0.896096
2010-09-15 06:19:57 51°13.662 2°55.961 19.745 2.407266 16.367827 -0.826448
2010-09-15 06:20:03 51°13.662 2°55.961 19.7435 2.407266 16.3681 -0.861272
2010-09-15 06:20:07 51°13.662 2°55.961 19.7396 2.407266 16.367827 -0.861272
2010-09-15 06:20:12 51°13.662 2°55.961 19.739 2.407266 16.367827 -0.861272
2010-09-15 06:20:17 51°13.662 2°55.961 19.741 2.407266 16.368373 -0.861272
2010-09-15 06:20:23 51°13.662 2°55.961 19.7471 2.407161 16.367317 -0.896096
2010-09-15 06:20:27 51°13.662 2°55.961 19.7498 2.407266 16.368373 -0.861272
2010-09-15 06:20:33 51°13.662 2°55.961 19.747 2.407161 16.36759 -0.861272
2010-09-15 06:20:37 51°13.662 2°55.961 19.7447 2.407161 16.36759 -0.896096
2010-09-15 06:20:42 51°13.662 2°55.961 19.7438 2.407161 16.36759 -0.896096
2010-09-15 06:20:47 51°13.662 2°55.962 19.7443 2.407161 16.36759 -0.896096
2010-09-15 06:20:52 51°13.661 2°55.962 19.7405 2.407161 16.367862 -0.861272
2010-09-15 06:20:57 51°13.661 2°55.961 19.7439 2.407056 16.367352 -0.896096
2010-09-15 06:21:02 51°13.662 2°55.961 19.7484 2.407161 16.368135 -0.861272
2010-09-15 06:21:07 51°13.662 2°55.961 19.7492 2.407056 16.367625 -0.861272
2010-09-15 06:21:13 51°13.662 2°55.961 19.7488 2.407056 16.367625 -0.861272
2010-09-15 06:21:17 51°13.663 2°55.961 19.7458 2.407056 16.367079 -0.896096
2010-09-15 06:21:22 51°13.663 2°55.961 19.7499 2.407056 16.367625 -0.861272
2010-09-15 06:21:27 51°13.663 2°55.961 19.7489 2.407056 16.367897 -0.896096
2010-09-15 06:21:32 51°13.663 2°55.961 19.7508 2.407056 16.367897 -0.896096
2010-09-15 06:21:37 51°13.663 2°55.961 19.7494 2.407056 16.367897 -0.861272
2010-09-15 06:21:42 51°13.663 2°55.961 19.7495 2.407056 16.367897 -0.861272
2010-09-15 06:21:47 51°13.663 2°55.961 19.752 2.407056 16.367897 -0.896096
2010-09-15 06:21:52 51°13.663 2°55.96 19.7484 2.407056 16.36817 -0.826448
2010-09-15 06:21:57 51°13.663 2°55.96 19.7482 2.407056 16.36817 -0.861272
2010-09-15 06:22:03 51°13.662 2°55.961 19.7499 2.406951 16.367387 -0.861272
2010-09-15 06:22:07 51°13.662 2°55.96 19.7503 2.406951 16.36766 -0.896096
2010-09-15 06:22:12 51°13.662 2°55.96 19.7397 2.406951 16.36766 -0.896096
2010-09-15 06:22:17 51°13.662 2°55.96 19.741 2.406951 16.368205 -0.861272
2010-09-15 06:22:23 51°13.662 2°55.961 19.749 2.406951 16.36766 -0.861272
2010-09-15 06:22:27 51°13.662 2°55.96 19.745 2.406951 16.367933 -0.861272
2010-09-15 06:22:31 51°13.662 2°55.96 19.7465 2.406951 16.367933 -0.896096
2010-09-15 06:22:37 51°13.662 2°55.96 19.7472 2.406951 16.367933 -0.861272
2010-09-15 06:22:43 51°13.662 2°55.96 19.747 2.406951 16.367933 -0.861272
2010-09-15 06:22:47 51°13.662 2°55.96 19.7449 2.406845 16.367149 -0.861272
2010-09-15 06:22:53 51°13.662 2°55.96 19.7426 2.406845 16.367695 -0.861272
2010-09-15 06:22:57 51°13.663 2°55.96 19.742 2.406845 16.367422 -0.861272
2010-09-15 06:23:02 51°13.662 2°55.96 19.7507 2.406845 16.367968 -0.861272
2010-09-15 06:23:07 51°13.662 2°55.96 19.7469 2.406845 16.367968 -0.861272
2010-09-15 06:23:12 51°13.662 2°55.96 19.7366 2.406845 16.367968 -0.861272
2010-09-15 06:23:17 51°13.662 2°55.96 19.7486 2.406845 16.368241 -0.826448
2010-09-15 06:23:22 51°13.662 2°55.96 19.7433 2.406951 16.368751 -0.861272
2010-09-15 06:23:27 51°13.662 2°55.96 19.7441 2.40674 16.367457 -0.861272
2010-09-15 06:23:32 51°13.663 2°55.96 19.749 2.406845 16.368513 -0.861272
2010-09-15 06:23:38 51°13.663 2°55.961 19.745 2.406845 16.368513 -0.861272
2010-09-15 06:23:43 51°13.663 2°55.962 19.7518 2.406845 16.368513 -0.861272
2010-09-15 06:23:47 51°13.662 2°55.961 19.7519 2.40674 16.368276 -0.896096
2010-09-15 06:23:52 51°13.662 2°55.96 19.7538 2.40674 16.368276 -0.861272
2010-09-15 06:23:57 51°13.662 2°55.96 19.7529 2.40674 16.368003 -0.896096
2010-09-15 06:24:03 51°13.662 2°55.96 19.76 2.40674 16.368276 -0.861272
2010-09-15 06:24:07 51°13.662 2°55.961 19.7578 2.40674 16.368276 -0.861272
2010-09-15 06:24:12 51°13.662 2°55.961 19.7569 2.40674 16.368276 -0.861272
2010-09-15 06:24:17 51°13.662 2°55.961 19.7594 2.406635 16.367492 -0.861272
2010-09-15 06:24:23 51°13.661 2°55.96 19.762 2.40674 16.368276 -0.861272
2010-09-15 06:24:27 51°13.661 2°55.96 19.7641 2.40674 16.368276 -0.896096
2010-09-15 06:24:31 51°13.661 2°55.961 19.762 2.406635 16.368038 -0.861272
2010-09-15 06:24:37 51°13.661 2°55.96 19.7657 2.40674 16.368821 -0.826448
2010-09-15 06:24:43 51°13.661 2°55.96 19.77 2.40674 16.368821 -0.826448
2010-09-15 06:24:47 51°13.661 2°55.96 19.7664 2.40674 16.368821 -0.861272
2010-09-15 06:24:52 51°13.661 2°55.961 19.7654 2.406635 16.368311 -0.861272
2010-09-15 06:24:57 51°13.661 2°55.96 19.7672 2.406635 16.368584 -0.896096
2010-09-15 06:25:03 51°13.661 2°55.96 19.7654 2.406635 16.368857 -0.826448
2010-09-15 06:25:07 51°13.661 2°55.959 19.76 2.406635 16.368584 -0.861272
2010-09-15 06:25:12 51°13.661 2°55.96 19.7286 2.406635 16.368584 -0.861272
2010-09-15 06:25:17 51°13.661 2°55.96 19.718 2.406635 16.368584 -0.861272
2010-09-15 06:25:22 51°13.661 2°55.959 19.7186 2.40653 16.367255 -0.861272
2010-09-15 06:25:27 51°13.662 2°55.957 19.6265 2.406425 16.366199 -0.861272
2010-09-15 06:25:33 51°13.662 2°55.953 19.7175 2.406425 16.366199 -0.826448
2010-09-15 06:25:37 51°13.663 2°55.95 19.7239 2.406425 16.366471 -0.861272
2010-09-15 06:25:42 51°13.664 2°55.944 19.7503 2.406425 16.366471 -0.861272
2010-09-15 06:25:48 51°13.666 2°55.937 19.7096 2.406425 16.366199 -0.896096
2010-09-15 06:25:54 51°13.668 2°55.93 19.7289 2.406425 16.367017 -0.861272
2010-09-15 06:25:59 51°13.67 2°55.923 19.7402 2.40653 16.367255 -0.861272
2010-09-15 06:26:05 51°13.672 2°55.914 19.7401 2.406425 16.36729 -0.896096
2010-09-15 06:26:11 51°13.674 2°55.904 19.7369 2.406425 16.367836 -0.861272
2010-09-15 06:26:16 51°13.676 2°55.896 19.7174 2.406425 16.367836 -0.861272
2010-09-15 06:26:21 51°13.678 2°55.887 19.7313 2.406425 16.367836 -0.861272
2010-09-15 06:26:26 51°13.679 2°55.877 19.7338 2.406425 16.367836 -0.896096
2010-09-15 06:26:31 51°13.681 2°55.868 19.7407 2.406425 16.368381 -0.861272
2010-09-15 06:26:36 51°13.683 2°55.859 19.7385 2.406425 16.368381 -0.896096
2010-09-15 06:26:41 51°13.685 2°55.849 19.7451 2.406425 16.368381 -0.861272
2010-09-15 06:26:46 51°13.686 2°55.841 19.7292 2.406425 16.368381 -0.861272
2010-09-15 06:26:51 51°13.688 2°55.832 19.7296 2.406319 16.367598 -0.896096
2010-09-15 06:26:56 51°13.689 2°55.824 19.7256 2.406425 16.368108 -0.826448
2010-09-15 06:27:01 51°13.69 2°55.815 19.7342 2.406425 16.368381 -0.861272
2010-09-15 06:27:06 51°13.691 2°55.806 19.7433 2.406425 16.368927 -0.861272
2010-09-15 06:27:11 51°13.692 2°55.797 19.7444 2.406425 16.3692 -0.896096
2010-09-15 06:27:16 51°13.693 2°55.79 19.7423 2.406425 16.3692 -0.896096
2010-09-15 06:27:21 51°13.693 2°55.782 19.7357 2.406319 16.368417 -0.896096
2010-09-15 06:27:26 51°13.694 2°55.774 19.7447 2.406319 16.368962 -0.861272
2010-09-15 06:27:31 51°13.694 2°55.767 19.7299 2.406319 16.368689 -0.861272
2010-09-15 06:27:36 51°13.694 2°55.76 19.7488 2.406425 16.368654 -0.861272
2010-09-15 06:27:40 51°13.694 2°55.755 19.7431 2.406319 16.368417 -0.861272
2010-09-15 06:27:46 51°13.694 2°55.749 19.7463 2.406319 16.368417 -0.861272
2010-09-15 06:27:51 51°13.694 2°55.745 19.7561 2.406319 16.368144 -0.826448
2010-09-15 06:27:55 51°13.694 2°55.743 19.7697 2.406319 16.368689 -0.861272
2010-09-15 06:28:00 51°13.694 2°55.742 19.7679 2.406319 16.369235 -0.896096
2010-09-15 06:28:05 51°13.695 2°55.743 19.7647 2.406425 16.371111 -0.896096
2010-09-15 06:28:10 51°13.696 2°55.745 19.7579 2.406425 16.372203 -0.896096
2010-09-15 06:28:15 51°13.697 2°55.747 19.7531 2.406425 16.372203 -0.896096
2010-09-15 06:28:19 51°13.698 2°55.749 19.7461 2.406425 16.372476 -0.826448
2010-09-15 06:28:24 51°13.699 2°55.751 19.6866 2.40632 16.372238 -0.861272
2010-09-15 06:28:29 51°13.7 2°55.753 19.7089 2.406319 16.370873 -0.861272
2010-09-15 06:28:34 51°13.7 2°55.754 19.7064 2.406109 16.367668 -0.896096
2010-09-15 06:28:39 51°13.7 2°55.754 19.6418 2.406109 16.367123 -0.861272
2010-09-15 06:28:44 51°13.699 2°55.753 19.7112 2.406109 16.367123 -0.861272
2010-09-15 06:28:49 51°13.698 2°55.752 19.7051 2.406004 16.366066 -0.861272
2010-09-15 06:28:54 51°13.696 2°55.75 19.7214 2.406004 16.365521 -0.861272
2010-09-15 06:28:58 51°13.694 2°55.748 19.734 2.405899 16.364192 -0.861272
2010-09-15 06:29:04 51°13.691 2°55.746 19.7325 2.406109 16.366031 -0.861272
2010-09-15 06:29:10 51°13.688 2°55.744 19.7252 2.406004 16.366339 -0.826448
2010-09-15 06:29:15 51°13.685 2°55.743 19.7357 2.406004 16.366339 -0.826448
2010-09-15 06:29:21 51°13.684 2°55.742 19.7529 2.406109 16.367395 -0.896096
2010-09-15 06:29:26 51°13.684 2°55.742 19.7533 2.406109 16.36876 -0.896096
2010-09-15 06:29:31 51°13.685 2°55.742 19.752 2.406109 16.370398 -0.861272
2010-09-15 06:29:36 51°13.687 2°55.743 19.7566 2.406425 16.374114 -0.896096
2010-09-15 06:29:41 51°13.69 2°55.744 19.7514 2.40632 16.374149 -0.861272
2010-09-15 06:29:46 51°13.693 2°55.743 19.7458 2.40632 16.374149 -0.861272
2010-09-15 06:29:51 51°13.697 2°55.743 19.7495 2.406214 16.373912 -0.861272
2010-09-15 06:29:55 51°13.701 2°55.74 19.7326 2.40632 16.374423 -0.861272
2010-09-15 06:30:00 51°13.705 2°55.738 19.7374 2.406109 16.371763 -0.861272
2010-09-15 06:30:05 51°13.71 2°55.734 19.7271 2.406109 16.370671 -0.861272
2010-09-15 06:30:10 51°13.716 2°55.729 19.7184 2.406109 16.369579 -0.861272
2010-09-15 06:30:15 51°13.722 2°55.724 19.6725 2.406109 16.369579 -0.861272
2010-09-15 06:30:20 51°13.729 2°55.717 19.6657 2.406004 16.367431 -0.896096
2010-09-15 06:30:25 51°13.737 2°55.711 19.6718 2.405899 16.365556 -0.861272
2010-09-15 06:30:29 51°13.743 2°55.706 19.6931 2.405793 16.364772 -0.896096
2010-09-15 06:30:30 51°13.745 2°55.704 19.6709 2.405583 16.363751 -0.896096
2010-09-15 06:30:30 51°13.745 2°55.704 19.6744 2.405793 16.364499 -0.826448
2010-09-15 06:30:30 51°13.745 2°55.704 19.6783 2.405583 16.363751 -0.896096
2010-09-15 06:30:49 51°13.781 2°55.676 19.6936 2.405583 16.364024 -0.861272
2010-09-15 06:30:54 51°13.792 2°55.666 19.6782 2.405583 16.363751 -0.861272
2010-09-15 06:30:59 51°13.803 2°55.657 19.6809 2.405583 16.364297 -0.896096
2010-09-15 06:31:04 51°13.815 2°55.648 19.6862 2.405478 16.36324 -0.896096
2010-09-15 06:31:09 51°13.826 2°55.639 19.6983 2.405478 16.362695 -0.896096
2010-09-15 06:31:14 51°13.838 2°55.63 19.6917 2.405478 16.362695 -0.896096
2010-09-15 06:31:18 51°13.847 2°55.623 19.6813 2.405478 16.36324 -0.896096
2010-09-15 06:31:23 51°13.859 2°55.613 19.6796 2.405478 16.362695 -0.896096
2010-09-15 06:31:28 51°13.871 2°55.604 19.6888 2.405373 16.361911 -0.861272
2010-09-15 06:31:33 51°13.884 2°55.595 19.6779 2.405373 16.361911 -0.896096
2010-09-15 06:31:38 51°13.896 2°55.586 19.6695 2.405373 16.361911 -0.861272
2010-09-15 06:31:43 51°13.908 2°55.576 19.6935 2.405373 16.361911 -0.861272
2010-09-15 06:31:47 51°13.918 2°55.569 19.6775 2.405267 16.36031 -0.861272
2010-09-15 06:31:52 51°13.93 2°55.561 19.7019 2.405267 16.36031 -0.861272
2010-09-15 06:31:57 51°13.943 2°55.551 19.691 2.405267 16.360855 -0.861272
2010-09-15 06:32:02 51°13.956 2°55.542 19.7025 2.405373 16.361911 -0.861272
2010-09-15 06:32:07 51°13.97 2°55.533 19.6963 2.405373 16.362457 -0.896096
2010-09-15 06:32:12 51°13.983 2°55.524 19.6955 2.405373 16.362457 -0.896096
2010-09-15 06:32:17 51°13.997 2°55.515 19.6736 2.405373 16.362457 -0.896096
2010-09-15 06:32:22 51°14.01 2°55.505 19.7126 2.405373 16.362184 -0.826448
2010-09-15 06:32:27 51°14.024 2°55.496 19.7033 2.405373 16.362184 -0.861272
2010-09-15 06:32:32 51°14.038 2°55.486 19.6555 2.405373 16.363003 -0.861272
2010-09-15 06:32:37 51°14.052 2°55.476 19.6988 2.405373 16.362457 -0.861272
2010-09-15 06:32:43 51°14.069 2°55.464 19.7082 2.405373 16.362457 -0.861272
2010-09-15 06:32:47 51°14.08 2°55.456 19.6664 2.405373 16.361366 -0.861272
2010-09-15 06:32:51 51°14.091 2°55.448 19.6866 2.405373 16.36273 -0.861272
2010-09-15 06:32:57 51°14.108 2°55.435 19.7066 2.405478 16.362149 -0.896096
2010-09-15 06:33:03 51°14.125 2°55.422 19.694 2.405478 16.364605 -0.861272
2010-09-15 06:33:07 51°14.136 2°55.413 19.7029 2.405478 16.363513 -0.861272
2010-09-15 06:33:12 51°14.15 2°55.401 19.6864 2.405478 16.363513 -0.861272
2010-09-15 06:33:17 51°14.164 2°55.389 19.6931 2.405267 16.362765 -0.861272
2010-09-15 06:33:23 51°14.181 2°55.374 19.6695 2.405373 16.363548 -0.861272
2010-09-15 06:33:27 51°14.192 2°55.364 19.665 2.405267 16.364129 -0.861272
2010-09-15 06:33:33 51°14.209 2°55.347 19.6878 2.405267 16.364402 -0.861272
2010-09-15 06:33:37 51°14.22 2°55.336 19.6382 2.405478 16.362968 -0.861272
2010-09-15 06:33:43 51°14.237 2°55.32 19.6757 2.405478 16.362968 -0.861272
2010-09-15 06:33:47 51°14.248 2°55.309 19.6637 2.405373 16.363548 -0.861272
2010-09-15 06:33:53 51°14.265 2°55.292 19.6889 2.405373 16.362457 -0.861272
2010-09-15 06:33:58 51°14.279 2°55.278 19.61 2.405267 16.361128 -0.826448
2010-09-15 06:34:03 51°14.293 2°55.264 19.6201 2.405899 16.363646 -0.861272
2010-09-15 06:34:07 51°14.305 2°55.252 19.6279 2.405478 16.358604 -0.896096
2010-09-15 06:34:12 51°14.32 2°55.239 19.6569 2.405478 16.358604 -0.896096
2010-09-15 06:34:17 51°14.334 2°55.227 19.6204 2.405478 16.357786 -0.896096
2010-09-15 06:34:23 51°14.352 2°55.214 19.6825 2.405372 16.354822 -0.861272
2010-09-15 06:34:27 51°14.364 2°55.205 19.66 2.405793 16.35959 -0.861272
2010-09-15 06:34:32 51°14.378 2°55.192 19.6631 2.406319 16.366779 -0.861272
2010-09-15 06:34:37 51°14.392 2°55.179 19.6311 2.405898 16.357102 -0.896096
2010-09-15 06:34:42 51°14.406 2°55.166 19.6496 2.405898 16.357102 -0.896096
2010-09-15 06:34:47 51°14.42 2°55.152 19.623 2.405898 16.354377 -0.896096
2010-09-15 06:34:52 51°14.434 2°55.138 19.6352 2.406003 16.349441 -0.861272
2010-09-15 06:34:58 51°14.45 2°55.121 19.6365 2.406109 16.349952 -0.861272
2010-09-15 06:35:03 51°14.464 2°55.105 19.6232 2.406109 16.347502 -0.861272
2010-09-15 06:35:07 51°14.475 2°55.093 19.6175 2.406424 16.353933 -0.861272
2010-09-15 06:35:12 51°14.489 2°55.077 19.6173 2.406424 16.353933 -0.861272
2010-09-15 06:35:18 51°14.505 2°55.057 19.6144 2.406425 16.372203 -0.861272
2010-09-15 06:35:23 51°14.518 2°55.041 19.6038 2.40632 16.374696 -0.861272
2010-09-15 06:35:27 51°14.53 2°55.028 19.6369 2.406004 16.37453 -0.861272
2010-09-15 06:35:32 51°14.543 2°55.011 19.6296 2.406004 16.392307 -0.861272
2010-09-15 06:35:37 51°14.556 2°54.994 19.5873 2.406004 16.397237 -0.861272
2010-09-15 06:35:43 51°14.573 2°54.974 19.6226 2.406004 16.397237 -0.861272
2010-09-15 06:35:47 51°14.585 2°54.961 19.5999 2.405584 16.410554 -0.861272
2010-09-15 06:35:52 51°14.6 2°54.947 19.6126 2.40548 16.467653 -0.896096
2010-09-15 06:35:57 51°14.615 2°54.931 19.5983 2.406111 16.473768 -0.896096
2010-09-15 06:36:03 51°14.634 2°54.914 19.6377 2.40548 16.461567 -0.861272
2010-09-15 06:36:07 51°14.647 2°54.903 19.6398 2.406006 16.493772 -0.861272
2010-09-15 06:36:11 51°14.659 2°54.893 19.6179 2.406006 16.493772 -0.861272
2010-09-15 06:36:17 51°14.678 2°54.876 19.6066 2.40548 16.496766 -0.861272
2010-09-15 06:36:23 51°14.697 2°54.859 19.6239 2.405901 16.486045 -0.861272
2010-09-15 06:36:27 51°14.709 2°54.848 19.6208 2.40548 16.448583 -0.861272
2010-09-15 06:36:32 51°14.724 2°54.834 19.6068 2.405269 16.430468 -0.896096
2010-09-15 06:36:37 51°14.74 2°54.82 19.6369 2.40569 16.429209 -0.896096
2010-09-15 06:36:42 51°14.755 2°54.806 19.6035 2.40569 16.429209 -0.896096
2010-09-15 06:36:47 51°14.769 2°54.792 19.6141 2.40569 16.439677 -0.861272
2010-09-15 06:36:52 51°14.785 2°54.778 19.6095 2.405269 16.430468 -0.861272
2010-09-15 06:36:57 51°14.8 2°54.764 19.6292 2.405058 16.407449 -0.861272
2010-09-15 06:37:03 51°14.819 2°54.747 19.5986 2.404322 16.420635 -0.826448
2010-09-15 06:37:07 51°14.831 2°54.735 19.5965 2.404533 16.470244 -0.896096
2010-09-15 06:37:12 51°14.847 2°54.721 19.611 2.404533 16.470244 -0.896096
2010-09-15 06:37:17 51°14.862 2°54.706 19.6288 2.404639 16.517992 -0.861272
2010-09-15 06:37:23 51°14.881 2°54.689 19.628 2.403692 16.506415 -0.896096
2010-09-15 06:37:27 51°14.893 2°54.678 19.6133 2.403798 16.51445 -0.896096
2010-09-15 06:37:32 51°14.909 2°54.664 19.6234 2.40485 16.510937 -0.861272
2010-09-15 06:37:37 51°14.925 2°54.65 19.6281 2.404849 16.494805 -0.896096
2010-09-15 06:37:43 51°14.942 2°54.632 19.6095 2.404849 16.494805 -0.896096
2010-09-15 06:37:47 51°14.955 2°54.62 19.6024 2.404533 16.464153 -0.896096
2010-09-15 06:37:51 51°14.967 2°54.608 19.6275 2.404007 16.433973 -0.896096
2010-09-15 06:37:57 51°14.985 2°54.589 19.6078 2.404007 16.437834 -0.861272
2010-09-15 06:38:03 51°15.002 2°54.571 19.6221 2.404428 16.458662 -0.896096
2010-09-15 06:38:07 51°15.014 2°54.557 19.6176 2.403481 16.449632 -0.861272
2010-09-15 06:38:12 51°15.029 2°54.542 19.6204 2.403481 16.449632 -0.861272
2010-09-15 06:38:17 51°15.044 2°54.525 19.62 2.402745 16.448812 -0.861272
2010-09-15 06:38:23 51°15.061 2°54.506 19.618 2.403481 16.448803 -0.861272
2010-09-15 06:38:27 51°15.073 2°54.493 19.6103 2.403165 16.451966 -0.861272
2010-09-15 06:38:31 51°15.085 2°54.48 19.6227 2.40285 16.454025 -0.896096
2010-09-15 06:38:37 51°15.103 2°54.46 19.6212 2.401798 16.465519 -0.896096
2010-09-15 06:38:42 51°15.117 2°54.445 19.6191 2.401798 16.465519 -0.896096
2010-09-15 06:38:47 51°15.132 2°54.428 19.6271 2.401483 16.471192 -0.861272
2010-09-15 06:38:53 51°15.149 2°54.408 19.6055 2.403061 16.48443 -0.896096
2010-09-15 06:38:57 51°15.161 2°54.396 19.6293 2.401587 16.453137 -0.861272
2010-09-15 06:39:02 51°15.176 2°54.379 19.626 2.401587 16.441521 -0.861272
2010-09-15 06:39:07 51°15.191 2°54.363 19.6306 2.402324 16.442343 -0.861272
2010-09-15 06:39:12 51°15.205 2°54.346 19.6198 2.402324 16.442343 -0.861272
2010-09-15 06:39:17 51°15.22 2°54.33 19.6074 2.401587 16.4512 -0.861272
2010-09-15 06:39:22 51°15.234 2°54.313 19.6088 2.402429 16.445342 -0.896096
2010-09-15 06:39:27 51°15.249 2°54.296 19.6244 2.40243 16.496089 -0.861272
2010-09-15 06:39:31 51°15.261 2°54.283 19.6086 2.401062 16.495549 -0.896096
2010-09-15 06:39:37 51°15.278 2°54.263 19.6312 2.400221 16.500361 -0.861272
2010-09-15 06:39:43 51°15.295 2°54.242 19.6204 2.400221 16.500361 -0.861272
2010-09-15 06:39:47 51°15.306 2°54.229 19.6209 2.401905 16.526153 -0.861272
2010-09-15 06:39:52 51°15.321 2°54.211 19.6342 2.400537 16.510547 -0.861272
2010-09-15 06:39:57 51°15.335 2°54.195 19.6321 2.399694 16.466364 -0.896096
2010-09-15 06:40:03 51°15.352 2°54.174 19.6304 2.400956 16.453662 -0.896096
2010-09-15 06:40:07 51°15.363 2°54.16 19.6133 2.401377 16.451836 -0.861272
2010-09-15 06:40:12 51°15.377 2°54.143 19.6366 2.401377 16.451836 -0.861272
2010-09-15 06:40:17 51°15.391 2°54.126 19.615 2.399483 16.444274 -0.896096
2010-09-15 06:40:23 51°15.407 2°54.103 19.6312 2.399483 16.446211 -0.861272
2010-09-15 06:40:27 51°15.418 2°54.088 19.6179 2.400115 16.463142 -0.861272
2010-09-15 06:40:32 51°15.43 2°54.069 19.6112 2.400326 16.484167 -0.896096
2010-09-15 06:40:37 51°15.443 2°54.049 19.6217 2.3998 16.487446 -0.861272
2010-09-15 06:40:42 51°15.456 2°54.03 19.6195 2.3998 16.487446 -0.861272
2010-09-15 06:40:47 51°15.469 2°54.011 19.6243 2.400431 16.485792 -0.861272
2010-09-15 06:40:52 51°15.482 2°53.991 19.6279 2.399484 16.466171 -0.826448
2010-09-15 06:40:56 51°15.492 2°53.976 19.6241 2.399589 16.468905 -0.826448
2010-09-15 06:41:02 51°15.508 2°53.953 19.6109 2.398852 16.449783 -0.896096
2010-09-15 06:41:08 51°15.524 2°53.93 19.6326 2.398222 16.481142 -0.896096
2010-09-15 06:41:12 51°15.535 2°53.915 19.6181 2.398222 16.481142 -0.896096
2010-09-15 06:41:17 51°15.549 2°53.897 19.6266 2.400221 16.481985 -0.861272
2010-09-15 06:41:22 51°15.562 2°53.879 19.6284 2.397695 16.446082 -0.896096
2010-09-15 06:41:27 51°15.576 2°53.86 19.6353 2.399378 16.443208 -0.861272
2010-09-15 06:41:32 51°15.59 2°53.842 19.6301 2.398642 16.437683 -0.861272
2010-09-15 06:41:37 51°15.604 2°53.823 19.6295 2.398326 16.443341 -0.896096
2010-09-15 06:41:43 51°15.62 2°53.801 19.631 2.398326 16.443341 -0.896096
2010-09-15 06:41:47 51°15.631 2°53.786 19.6422 2.398853 16.464483 -0.896096
2010-09-15 06:41:52 51°15.645 2°53.767 19.6259 2.39759 16.463049 -0.861272
2010-09-15 06:41:57 51°15.659 2°53.749 19.6288 2.396959 16.461359 -0.826448
2010-09-15 06:42:02 51°15.672 2°53.731 19.6238 2.398537 16.466832 -0.861272
2010-09-15 06:42:07 51°15.686 2°53.713 19.633 2.397275 16.452626 -0.861272
2010-09-15 06:42:12 51°15.7 2°53.696 19.627 2.397275 16.452626 -0.861272
2010-09-15 06:42:17 51°15.714 2°53.677 19.6301 2.398116 16.467836 -0.861272
2010-09-15 06:42:22 51°15.729 2°53.659 19.6326 2.396854 16.458346 -0.861272
2010-09-15 06:42:27 51°15.742 2°53.641 19.6246 2.397801 16.453526 -0.896096
2010-09-15 06:42:32 51°15.756 2°53.623 19.6366 2.397275 16.451517 -0.861272
2010-09-15 06:42:37 51°15.77 2°53.604 19.6428 2.395697 16.44188 -0.861272
2010-09-15 06:42:42 51°15.784 2°53.586 19.6285 2.395697 16.44188 -0.861272
2010-09-15 06:42:48 51°15.8 2°53.564 19.6408 2.39717 16.462385 -0.861272
2010-09-15 06:42:52 51°15.811 2°53.55 19.6368 2.396118 16.466426 -0.861272
2010-09-15 06:42:57 51°15.825 2°53.532 19.6381 2.395382 16.470346 -0.861272
2010-09-15 06:43:02 51°15.839 2°53.514 19.6245 2.395907 16.471243 -0.826448
2010-09-15 06:43:07 51°15.853 2°53.496 19.6383 2.39475 16.453915 -0.861272
2010-09-15 06:43:12 51°15.868 2°53.48 19.6308 2.39475 16.453915 -0.861272
2010-09-15 06:43:17 51°15.883 2°53.463 19.6421 2.397275 16.465955 -0.861272
2010-09-15 06:43:22 51°15.897 2°53.447 19.6359 2.395907 16.451784 -0.861272
2010-09-15 06:43:27 51°15.912 2°53.43 19.6459 2.395591 16.449967 -0.896096
2010-09-15 06:43:32 51°15.927 2°53.414 19.6352 2.395171 16.447637 -0.861272
2010-09-15 06:43:37 51°15.942 2°53.398 19.6469 2.39454 16.458726 -0.861272
2010-09-15 06:43:42 51°15.958 2°53.382 19.6342 2.39454 16.458726 -0.861272
2010-09-15 06:43:47 51°15.972 2°53.366 19.6522 2.395382 16.472573 -0.861272
2010-09-15 06:43:52 51°15.988 2°53.351 19.6397 2.395066 16.472147 -0.861272
2010-09-15 06:43:57 51°16.003 2°53.335 19.641 2.396118 16.478396 -0.861272
2010-09-15 06:44:02 51°16.018 2°53.32 19.662 2.39454 16.467073 -0.896096
2010-09-15 06:44:07 51°16.034 2°53.305 19.6439 2.394435 16.473522 -0.826448
2010-09-15 06:44:12 51°16.048 2°53.289 19.6369 2.394435 16.473522 -0.826448
2010-09-15 06:44:17 51°16.063 2°53.274 19.6601 2.393172 16.446213 -0.861272
2010-09-15 06:44:22 51°16.078 2°53.259 19.6389 2.395802 16.443225 -0.896096
2010-09-15 06:44:27 51°16.092 2°53.245 19.6651 2.393066 16.409947 -0.896096
2010-09-15 06:44:32 51°16.107 2°53.231 19.6667 2.393382 16.42117 -0.896096
2010-09-15 06:44:37 51°16.121 2°53.217 19.6467 2.398011 16.467601 -0.826448
2010-09-15 06:44:43 51°16.138 2°53.2 19.6489 2.398011 16.467601 -0.826448
2010-09-15 06:44:48 51°16.153 2°53.186 19.6592 2.394329 16.427173 -0.826448
2010-09-15 06:44:52 51°16.164 2°53.174 19.6497 2.396012 16.452298 -0.896096
2010-09-15 06:44:57 51°16.179 2°53.159 19.6464 2.39475 16.435044 -0.861272
2010-09-15 06:45:03 51°16.197 2°53.141 19.6624 2.393487 16.434707 -0.861272
2010-09-15 06:45:07 51°16.209 2°53.129 19.6472 2.396012 16.449244 -0.861272
2010-09-15 06:45:12 51°16.224 2°53.114 19.693 2.396012 16.449244 -0.861272
2010-09-15 06:45:17 51°16.239 2°53.099 19.6927 2.393172 16.448158 -0.861272
2010-09-15 06:45:22 51°16.254 2°53.084 19.6919 2.395487 16.467798 -0.896096
2010-09-15 06:45:27 51°16.269 2°53.069 19.7054 2.39454 16.481564 -0.896096
2010-09-15 06:45:32 51°16.284 2°53.055 19.682 2.393909 16.476529 -0.861272
2010-09-15 06:45:37 51°16.3 2°53.039 19.6917 2.395066 16.488039 -0.826448
2010-09-15 06:45:42 51°16.316 2°53.025 19.7196 2.395066 16.488039 -0.826448
2010-09-15 06:45:47 51°16.332 2°53.011 19.6868 2.395066 16.483574 -0.861272
2010-09-15 06:45:52 51°16.348 2°52.998 19.7236 2.392331 16.46269 -0.896096
2010-09-15 06:45:57 51°16.364 2°52.984 19.6964 2.394961 16.478599 -0.896096
2010-09-15 06:46:02 51°16.38 2°52.972 19.72 2.39475 16.463925 -0.861272
2010-09-15 06:46:07 51°16.396 2°52.958 19.6885 2.393593 16.458832 -0.896096
2010-09-15 06:46:12 51°16.413 2°52.945 19.7038 2.393593 16.458832 -0.896096
2010-09-15 06:46:17 51°16.428 2°52.932 19.7179 2.392331 16.45239 -0.826448
2010-09-15 06:46:22 51°16.444 2°52.917 19.7239 2.393172 16.445379 -0.861272
2010-09-15 06:46:27 51°16.461 2°52.905 19.7163 2.392225 16.44826 -0.861272
2010-09-15 06:46:32 51°16.477 2°52.892 19.7122 2.393383 16.451408 -0.861272
2010-09-15 06:46:37 51°16.493 2°52.879 19.7079 2.391594 16.445177 -0.861272
2010-09-15 06:46:42 51°16.509 2°52.865 19.715 2.391594 16.445177 -0.861272
2010-09-15 06:46:47 51°16.525 2°52.852 19.7104 2.392436 16.442617 -0.861272
2010-09-15 06:46:52 51°16.541 2°52.84 19.7279 2.392225 16.429654 -0.896096
2010-09-15 06:46:57 51°16.558 2°52.827 19.7147 2.392751 16.438049 -0.896096
2010-09-15 06:47:02 51°16.575 2°52.816 19.6983 2.39212 16.448859 -0.826448
2010-09-15 06:47:07 51°16.591 2°52.804 19.7026 2.39191 16.4559 -0.861272
2010-09-15 06:47:12 51°16.608 2°52.794 19.7221 2.39191 16.4559 -0.861272
2010-09-15 06:47:17 51°16.625 2°52.782 19.7128 2.392542 16.476822 -0.861272
2010-09-15 06:47:23 51°16.646 2°52.77 19.7047 2.390332 16.457103 -0.826448
2010-09-15 06:47:27 51°16.659 2°52.76 19.7309 2.392541 16.46957 -0.896096
2010-09-15 06:47:32 51°16.676 2°52.748 19.7276 2.38949 16.442964 -0.861272
2010-09-15 06:47:37 51°16.693 2°52.738 19.716 2.392331 16.462411 -0.826448
2010-09-15 06:47:42 51°16.71 2°52.727 19.7413 2.392331 16.462411 -0.826448
2010-09-15 06:47:48 51°16.73 2°52.713 19.7224 2.390542 16.438371 -0.826448
2010-09-15 06:47:52 51°16.743 2°52.704 19.7265 2.390542 16.438371 -0.896096
2010-09-15 06:47:57 51°16.761 2°52.694 19.7343 2.392015 16.450014 -0.896096
2010-09-15 06:48:02 51°16.777 2°52.681 19.7412 2.390542 16.437537 -0.826448
2010-09-15 06:48:07 51°16.794 2°52.671 19.7284 2.390016 16.432189 -0.861272
2010-09-15 06:48:12 51°16.811 2°52.659 19.761 2.390016 16.432189 -0.861272
2010-09-15 06:48:17 51°16.828 2°52.648 18.8686 2.388648 16.422174 -0.896096
2010-09-15 06:48:22 51°16.845 2°52.637 17.8808 2.390227 16.437385 -0.896096
2010-09-15 06:48:27 51°16.862 2°52.627 17.6888 2.757228 19.225553 -0.791624
2010-09-15 06:48:32 51°16.878 2°52.616 17.5808 2.472821 17.05547 -0.7568
2010-09-15 06:48:37 51°16.895 2°52.603 17.5422 4.515384 33.165462 -0.547855
2010-09-15 06:48:42 51°16.911 2°52.592 17.5125 4.515384 33.165462 -0.547855
2010-09-15 06:48:47 51°16.928 2°52.58 17.4999 4.456486 32.60254 -0.443383
2010-09-15 06:48:52 51°16.945 2°52.569 17.4413 4.508733 33.064646 -0.234439
2010-09-15 06:48:57 51°16.962 2°52.556 17.4412 4.244263 31.227324 -0.164791
2010-09-15 06:49:02 51°16.979 2°52.544 17.4295 4.280782 31.901349 -0.269263
2010-09-15 06:49:07 51°16.995 2°52.532 17.4138 4.353813 32.724182 -0.338911
2010-09-15 06:49:12 51°17.012 2°52.522 17.4073 4.353813 32.724182 -0.338911
2010-09-15 06:49:17 51°17.029 2°52.509 17.3935 4.408485 33.345942 -0.304087
2010-09-15 06:49:23 51°17.049 2°52.496 17.3899 4.455349 33.888614 -0.373735
2010-09-15 06:49:27 51°17.063 2°52.486 17.3899 4.461894 34.049794 -0.408559
2010-09-15 06:49:32 51°17.08 2°52.475 17.3785 4.481316 34.278839 -0.373735
2010-09-15 06:49:37 51°17.097 2°52.464 17.3747 4.481739 34.317479 -0.408559
2010-09-15 06:49:42 51°17.114 2°52.452 17.3795 4.481739 34.317479 -0.408559
2010-09-15 06:49:48 51°17.134 2°52.439 17.3854 4.486489 34.393352 -0.443383
2010-09-15 06:49:52 51°17.148 2°52.432 17.3704 4.481001 34.3703 -0.373735
2010-09-15 06:49:57 51°17.167 2°52.424 17.3746 4.48174 34.396418 -0.478207
2010-09-15 06:50:03 51°17.188 2°52.415 17.3804 4.478257 34.375754 -0.408559
2010-09-15 06:50:08 51°17.207 2°52.409 17.3961 4.493774 34.529027 -0.408559
2010-09-15 06:50:12 51°17.221 2°52.403 17.3829 4.493774 34.529027 -0.408559
2010-09-15 06:50:17 51°17.24 2°52.398 17.3852 4.500423 34.597465 -0.408559
2010-09-15 06:50:22 51°17.258 2°52.394 17.3861 4.506545 34.6558 -0.408559
2010-09-15 06:50:27 51°17.277 2°52.389 17.3824 4.48628 34.484403 -0.408559
2010-09-15 06:50:32 51°17.296 2°52.385 17.3909 4.506546 34.666411 -0.408559
2010-09-15 06:50:37 51°17.314 2°52.379 17.3963 4.493352 34.553375 -0.408559
2010-09-15 06:50:42 51°17.333 2°52.377 17.414 4.493352 34.553375 -0.408559
2010-09-15 06:50:47 51°17.351 2°52.37 17.4059 4.490185 34.521131 -0.408559
2010-09-15 06:50:52 51°17.37 2°52.367 17.4129 4.486385 34.487796 -0.373735
2010-09-15 06:50:57 51°17.388 2°52.361 17.4098 4.488496 34.51032 -0.373735
2010-09-15 06:51:02 51°17.407 2°52.359 17.398 4.499685 34.607302 -0.304087
2010-09-15 06:51:07 51°17.425 2°52.355 17.3995 4.457465 34.245134 -0.338911
2010-09-15 06:51:12 51°17.444 2°52.35 17.3938 4.457465 34.245134 -0.338911
2010-09-15 06:51:17 51°17.462 2°52.348 17.4005 4.492824 34.546963 -0.373735
2010-09-15 06:51:22 51°17.48 2°52.344 17.3952 4.488391 34.505682 -0.338911
2010-09-15 06:51:27 51°17.499 2°52.341 17.3993 4.502851 34.628344 -0.338911
2010-09-15 06:51:32 51°17.518 2°52.337 17.3965 4.506757 34.658866 -0.338911
2010-09-15 06:51:37 51°17.536 2°52.332 17.3943 4.508023 34.670402 -0.338911
2010-09-15 06:51:42 51°17.555 2°52.329 17.3929 4.508023 34.670402 -0.338911
2010-09-15 06:51:48 51°17.577 2°52.324 17.3904 4.515201 34.733496 -0.304087
2010-09-15 06:51:52 51°17.592 2°52.32 17.3932 4.506229 34.658689 -0.304087
2010-09-15 06:51:57 51°17.611 2°52.318 17.3964 4.509923 34.691143 -0.304087
2010-09-15 06:52:02 51°17.629 2°52.312 17.3949 4.516045 34.74703 -0.338911
2010-09-15 06:52:07 51°17.648 2°52.307 17.3968 4.519951 34.779443 -0.304087
2010-09-15 06:52:12 51°17.666 2°52.302 17.3959 4.519951 34.779443 -0.304087
2010-09-15 06:52:17 51°17.685 2°52.298 17.3937 4.521323 34.793779 -0.304087
2010-09-15 06:52:22 51°17.703 2°52.295 17.3993 4.518895 34.774102 -0.304087
2010-09-15 06:52:28 51°17.726 2°52.29 17.3966 4.522484 34.806925 -0.269263
2010-09-15 06:52:32 51°17.741 2°52.29 17.4015 4.522378 34.806015 -0.269263
2010-09-15 06:52:37 51°17.76 2°52.287 17.3941 4.52164 34.799017 -0.269263
2010-09-15 06:52:42 51°17.779 2°52.287 17.3922 4.52164 34.799017 -0.269263
2010-09-15 06:52:47 51°17.797 2°52.287 17.3987 4.520267 34.785932 -0.269263
2010-09-15 06:52:52 51°17.816 2°52.285 17.3991 4.520162 34.787529 -0.304087
2010-09-15 06:52:57 51°17.835 2°52.287 17.4025 4.521851 34.801464 -0.269263
2010-09-15 06:53:02 51°17.854 2°52.285 17.4018 4.518684 34.772282 -0.269263
2010-09-15 06:53:07 51°17.872 2°52.287 17.3997 4.520373 34.786842 -0.269263
2010-09-15 06:53:12 51°17.891 2°52.288 17.4058 4.520373 34.786842 -0.269263
2010-09-15 06:53:16 51°17.906 2°52.288 17.4001 4.51499 34.741687 -0.304087
2010-09-15 06:53:22 51°17.929 2°52.294 17.4015 4.519529 34.780189 -0.269263
2010-09-15 06:53:27 51°17.948 2°52.296 17.3991 4.516045 34.750786 -0.234439
2010-09-15 06:53:32 51°17.967 2°52.301 17.401 4.519001 34.775012 -0.234439
2010-09-15 06:53:36 51°17.982 2°52.305 17.4037 4.518367 34.768926 -0.269263
2010-09-15 06:53:42 51°18.005 2°52.309 17.4074 4.518367 34.768926 -0.269263
2010-09-15 06:53:47 51°18.023 2°52.317 17.3991 4.519212 34.775579 -0.269263
2010-09-15 06:53:52 51°18.042 2°52.322 17.3983 4.519212 34.776206 -0.234439
2010-09-15 06:53:57 51°18.061 2°52.326 17.4013 4.518367 34.767673 -0.269263
2010-09-15 06:54:02 51°18.079 2°52.334 17.4003 4.518473 34.768583 -0.234439
2010-09-15 06:54:07 51°18.098 2°52.336 17.4046 4.521006 34.791676 -0.234439
2010-09-15 06:54:12 51°18.117 2°52.339 17.4059 4.521006 34.791676 -0.234439
2010-09-15 06:54:17 51°18.136 2°52.346 17.4048 4.521006 34.791049 -0.199615
2010-09-15 06:54:22 51°18.155 2°52.349 17.4055 4.517629 34.759426 -0.199615
2010-09-15 06:54:28 51°18.178 2°52.357 17.4093 4.514251 34.731564 -0.234439
2010-09-15 06:54:32 51°18.193 2°52.361 17.4097 4.514145 34.73128 -0.199615
2010-09-15 06:54:37 51°18.211 2°52.365 17.4101 4.510873 34.704955 -0.199615
2010-09-15 06:54:42 51°18.231 2°52.373 17.4102 4.510873 34.704955 -0.199615
2010-09-15 06:54:48 51°18.254 2°52.377 17.4141 4.514145 34.731906 -0.199615
2010-09-15 06:54:52 51°18.269 2°52.383 17.4091 4.516468 34.7538 -0.199615
2010-09-15 06:54:57 51°18.288 2°52.388 17.4091 4.51499 34.736681 -0.164791
2010-09-15 06:55:02 51°18.307 2°52.394 17.4091 4.513618 34.72548 -0.199615
2010-09-15 06:55:07 51°18.325 2°52.403 17.4045 4.52069 34.784559 -0.199615
2010-09-15 06:55:12 51°18.345 2°52.406 17.4061 4.52069 34.784559 -0.199615
2010-09-15 06:55:17 51°18.364 2°52.411 17.4111 4.511929 34.70905 -0.199615
2010-09-15 06:55:22 51°18.383 2°52.418 17.4104 4.511823 34.707515 -0.234439
2010-09-15 06:55:27 51°18.402 2°52.42 17.4076 4.508657 34.678356 -0.199615
2010-09-15 06:55:32 51°18.421 2°52.425 17.4109 4.521534 34.788079 -0.199615
2010-09-15 06:55:37 51°18.44 2°52.43 17.4107 4.523012 34.803325 -0.234439
2010-09-15 06:55:43 51°18.462 2°52.436 17.4102 4.523012 34.803325 -0.234439
2010-09-15 06:55:47 51°18.477 2°52.442 17.4084 4.522273 34.798835 -0.164791
2010-09-15 06:55:52 51°18.496 2°52.446 17.4117 4.523012 34.803951 -0.129967
2010-09-15 06:55:57 51°18.515 2°52.453 17.4084 4.523117 34.806115 -0.199615
2010-09-15 06:56:02 51°18.534 2°52.459 17.4055 4.523223 34.805771 -0.164791
2010-09-15 06:56:07 51°18.553 2°52.464 17.4095 4.523328 34.803547 -0.164791
2010-09-15 06:56:12 51°18.571 2°52.472 17.4075 4.523328 34.803547 -0.164791
2010-09-15 06:56:17 51°18.591 2°52.476 17.4088 4.525123 34.821524 -0.164791
2010-09-15 06:56:22 51°18.609 2°52.483 17.4092 4.525439 34.823 -0.164791
2010-09-15 06:56:28 51°18.632 2°52.492 17.4081 4.525334 34.823972 -0.129967
2010-09-15 06:56:32 51°18.647 2°52.495 17.404 4.523962 34.812141 -0.129967
2010-09-15 06:56:36 51°18.662 2°52.499 17.4041 4.525017 34.821869 -0.164791
2010-09-15 06:56:42 51°18.684 2°52.508 17.4063 4.525017 34.821869 -0.164791
2010-09-15 06:56:48 51°18.706 2°52.513 17.4006 4.525545 34.825165 -0.164791
2010-09-15 06:56:52 51°18.721 2°52.52 17.3981 4.526812 34.836713 -0.164791
2010-09-15 06:56:56 51°18.736 2°52.522 17.3999 4.524173 34.813961 -0.129967
2010-09-15 06:57:02 51°18.759 2°52.532 17.3981 4.525545 34.827674 -0.095143
2010-09-15 06:57:07 51°18.778 2°52.537 17.3914 4.524278 34.816753 -0.129967
2010-09-15 06:57:12 51°18.797 2°52.544 17.39 4.524278 34.816753 -0.129967
2010-09-15 06:57:17 51°18.816 2°52.548 17.3929 4.525439 34.828018 -0.129967
2010-09-15 06:57:22 51°18.834 2°52.556 17.3887 4.527445 34.84594 -0.164791
2010-09-15 06:57:27 51°18.853 2°52.56 17.3881 4.525228 34.82808 -0.164791
2010-09-15 06:57:32 51°18.872 2°52.568 17.388 4.526389 34.83872 -0.095143
2010-09-15 06:57:37 51°18.891 2°52.571 17.385 4.526389 34.839976 -0.129967
2010-09-15 06:57:42 51°18.91 2°52.577 17.3825 4.526389 34.839976 -0.129967
2010-09-15 06:57:47 51°18.929 2°52.581 17.3833 4.525967 34.840729 -0.129967
2010-09-15 06:57:52 51°18.947 2°52.589 17.3839 4.525967 34.841984 -0.164791
2010-09-15 06:57:56 51°18.963 2°52.591 17.3804 4.524912 34.835391 -0.129967
2010-09-15 06:58:02 51°18.986 2°52.599 17.377 4.525651 34.841764 -0.164791
2010-09-15 06:58:08 51°19.008 2°52.607 17.3738 4.525123 34.838468 -0.129967
2010-09-15 06:58:12 51°19.024 2°52.609 17.37 4.525123 34.838468 -0.129967
2010-09-15 06:58:16 51°19.039 2°52.615 17.3663 4.524595 34.835799 -0.164791
2010-09-15 06:58:22 51°19.062 2°52.621 17.3695 4.525123 34.842235 -0.164791
2010-09-15 06:58:27 51°19.08 2°52.628 17.3633 4.524384 34.837745 -0.164791
2010-09-15 06:58:32 51°19.099 2°52.634 17.3613 4.524595 34.840822 -0.164791
2010-09-15 06:58:37 51°19.119 2°52.638 17.3598 4.523751 34.832281 -0.164791
2010-09-15 06:58:42 51°19.137 2°52.645 17.3573 4.523751 34.832281 -0.164791
2010-09-15 06:58:48 51°19.16 2°52.648 17.356 4.52449 34.842424 -0.164791
2010-09-15 06:58:52 51°19.175 2°52.653 17.3495 4.523223 34.835892 -0.164791
2010-09-15 06:58:57 51°19.194 2°52.657 17.3487 4.523329 34.839315 -0.199615
2010-09-15 06:59:02 51°19.213 2°52.661 17.3485 4.523012 34.838467 -0.199615
2010-09-15 06:59:08 51°19.235 2°52.668 17.3416 4.524068 34.85009 -0.164791
2010-09-15 06:59:12 51°19.25 2°52.67 17.3398 4.524068 34.85009 -0.164791
2010-09-15 06:59:16 51°19.266 2°52.672 17.34 4.52354 34.848049 -0.199615
2010-09-15 06:59:22 51°19.288 2°52.678 17.3414 4.522801 34.843557 -0.164791
2010-09-15 06:59:27 51°19.308 2°52.68 17.3402 4.521324 34.832059 -0.129967
2010-09-15 06:59:32 51°19.327 2°52.686 17.3369 4.522696 34.847046 -0.164791
2010-09-15 06:59:37 51°19.346 2°52.69 17.3341 4.521113 34.836521 -0.164791
2010-09-15 06:59:42 51°19.365 2°52.696 17.3322 4.521113 34.836521 -0.164791
2010-09-15 06:59:47 51°19.383 2°52.702 17.3348 4.521746 34.846389 -0.164791
2010-09-15 06:59:52 51°19.402 2°52.708 17.3297 4.520796 34.839445 -0.129967
2010-09-15 06:59:57 51°19.421 2°52.713 17.3321 4.521113 34.843436 -0.199615
2010-09-15 07:00:02 51°19.44 2°52.719 17.332 4.518474 34.819396 -0.199615
2010-09-15 07:00:07 51°19.459 2°52.726 17.3318 4.520268 34.836145 -0.129967
2010-09-15 07:00:12 51°19.477 2°52.73 17.3335 4.520268 34.836145 -0.129967
2010-09-15 07:00:17 51°19.497 2°52.737 17.3362 4.518791 34.826529 -0.129967
2010-09-15 07:00:22 51°19.516 2°52.741 17.336 4.517418 34.81908 -0.164791
2010-09-15 07:00:27 51°19.535 2°52.749 17.3357 4.517418 34.81908 -0.129967
2010-09-15 07:00:32 51°19.554 2°52.752 17.3402 4.517313 34.820054 -0.129967
2010-09-15 07:00:37 51°19.572 2°52.757 17.339 4.519846 34.841303 -0.199615
2010-09-15 07:00:42 51°19.591 2°52.762 17.34 4.519846 34.841303 -0.199615
2010-09-15 07:00:47 51°19.61 2°52.767 17.3428 4.518368 34.829798 -0.129967
2010-09-15 07:00:52 51°19.629 2°52.773 17.3422 4.518791 34.832187 -0.129967
2010-09-15 07:00:56 51°19.644 2°52.777 17.3414 4.518052 34.825806 -0.164791
2010-09-15 07:01:02 51°19.667 2°52.782 17.3428 4.518052 34.825177 -0.199615
2010-09-15 07:01:07 51°19.686 2°52.788 17.3453 4.519424 34.837027 -0.164791
2010-09-15 07:01:12 51°19.705 2°52.792 17.3469 4.519424 34.837027 -0.164791
2010-09-15 07:01:17 51°19.724 2°52.799 17.3468 4.519741 34.837875 -0.164791
2010-09-15 07:01:22 51°19.743 2°52.803 17.3383 4.519846 34.837529 -0.164791
2010-09-15 07:01:28 51°19.766 2°52.809 17.338 4.517524 34.817477 -0.164791
2010-09-15 07:01:32 51°19.781 2°52.814 17.3387 4.518052 34.820149 -0.129967
2010-09-15 07:01:37 51°19.8 2°52.819 17.338 4.517735 34.816787 -0.199615
2010-09-15 07:01:42 51°19.82 2°52.825 17.3387 4.517735 34.816787 -0.199615
2010-09-15 07:01:47 51°19.839 2°52.831 17.341 4.519002 34.827095 -0.199615
2010-09-15 07:01:52 51°19.858 2°52.839 17.3381 4.517946 34.816724 -0.129967
2010-09-15 07:01:57 51°19.876 2°52.846 17.3362 4.516785 34.807328 -0.164791
2010-09-15 07:02:03 51°19.899 2°52.854 17.3362 4.517207 34.810973 -0.129967
2010-09-15 07:02:07 51°19.914 2°52.862 17.3351 4.518685 34.826246 -0.129967
2010-09-15 07:02:12 51°19.933 2°52.869 17.3377 4.518685 34.826246 -0.129967
2010-09-15 07:02:17 51°19.952 2°52.875 17.3436 4.516996 34.81292 -0.129967
2010-09-15 07:02:22 51°19.97 2°52.887 17.337 4.519424 34.832626 -0.095143
2010-09-15 07:02:27 51°19.989 2°52.892 17.3359 4.516152 34.805001 -0.095143
2010-09-15 07:02:32 51°20.008 2°52.898 17.3405 4.515518 34.800789 -0.060319
2010-09-15 07:02:37 51°20.026 2°52.906 17.3398 4.515941 34.805063 -0.095143
2010-09-15 07:02:42 51°20.045 2°52.914 17.3401 4.515941 34.805063 -0.095143
2010-09-15 07:02:47 51°20.064 2°52.92 17.3403 4.515941 34.805063 -0.095143
2010-09-15 07:02:52 51°20.081 2°52.928 17.3402 4.517207 34.816628 -0.095143
2010-09-15 07:02:56 51°20.097 2°52.935 17.3405 4.517102 34.815089 -0.095143
2010-09-15 07:03:02 51°20.119 2°52.94 17.3436 4.516574 34.81116 -0.095143
2010-09-15 07:03:07 51°20.137 2°52.948 17.3422 4.517207 34.813487 -0.095143
2010-09-15 07:03:12 51°20.156 2°52.955 17.3435 4.517207 34.813487 -0.095143
2010-09-15 07:03:16 51°20.171 2°52.961 17.3445 4.517313 34.816283 -0.095143
2010-09-15 07:03:22 51°20.193 2°52.969 17.3416 4.517418 34.816566 -0.095143
2010-09-15 07:03:27 51°20.211 2°52.979 17.3436 4.518791 34.828415 -0.060319
2010-09-15 07:03:32 51°20.23 2°52.986 17.3427 4.51668 34.810186 -0.129967
2010-09-15 07:03:37 51°20.248 2°52.995 17.3439 4.515941 34.805063 -0.095143
2010-09-15 07:03:42 51°20.266 2°53.005 17.3426 4.515941 34.805063 -0.095143
2010-09-15 07:03:47 51°20.285 2°53.012 17.3442 4.517629 34.815247 -0.095143
2010-09-15 07:03:52 51°20.304 2°53.019 17.3444 4.515624 34.797932 -0.095143
2010-09-15 07:03:57 51°20.322 2°53.029 17.3481 4.514568 34.789448 -0.129967
2010-09-15 07:04:02 51°20.341 2°53.036 17.3459 4.513619 34.781247 -0.095143
2010-09-15 07:04:07 51°20.359 2°53.044 17.3455 4.513407 34.778169 -0.060319
2010-09-15 07:04:12 51°20.378 2°53.054 17.3452 4.513407 34.778169 -0.060319
2010-09-15 07:04:17 51°20.396 2°53.06 17.3474 4.512457 34.769969 -0.095143
2010-09-15 07:04:23 51°20.418 2°53.07 17.3483 4.511719 34.763591 -0.129967
2010-09-15 07:04:27 51°20.433 2°53.077 17.3489 4.511296 34.760574 -0.025495
2010-09-15 07:04:32 51°20.451 2°53.086 17.3503 4.510663 34.753853 -0.095143
2010-09-15 07:04:37 51°20.47 2°53.093 17.3498 4.509291 34.742637 -0.060319
2010-09-15 07:04:42 51°20.488 2°53.103 17.3506 4.509291 34.742637 -0.060319
2010-09-15 07:04:47 51°20.506 2°53.111 17.3502 4.508658 34.734664 -0.025495
2010-09-15 07:04:52 51°20.525 2°53.12 17.3502 4.509185 34.739845 -0.095143
2010-09-15 07:04:57 51°20.543 2°53.127 17.352 4.507391 34.724359 -0.060319
2010-09-15 07:05:02 51°20.561 2°53.136 17.3488 4.507708 34.725839 -0.025495
2010-09-15 07:05:08 51°20.583 2°53.146 17.3522 4.505385 34.705174 -0.060319
2010-09-15 07:05:12 51°20.598 2°53.154 17.3523 4.505385 34.705174 -0.060319
2010-09-15 07:05:16 51°20.613 2°53.16 17.3521 4.50623 34.712461 -0.060319
2010-09-15 07:05:22 51°20.634 2°53.172 17.3542 4.504541 34.696636 -0.025495
2010-09-15 07:05:28 51°20.657 2°53.178 17.3558 4.499897 34.655943 -0.060319
2010-09-15 07:05:32 51°20.671 2°53.187 17.3551 4.502747 34.681155 -0.025495
2010-09-15 07:05:36 51°20.687 2°53.192 17.3575 4.501691 34.671423 -0.025495
2010-09-15 07:05:42 51°20.708 2°53.202 17.3595 4.501691 34.671423 -0.025495
2010-09-15 07:05:47 51°20.727 2°53.209 17.3584 4.500319 34.660211 -0.060319
2010-09-15 07:05:52 51°20.745 2°53.215 17.3592 4.499158 34.650195 -0.060319
2010-09-15 07:05:57 51°20.763 2°53.222 17.3612 4.498736 34.644678 -0.025495
2010-09-15 07:06:02 51°20.782 2°53.229 17.3605 4.497469 34.633753 -0.060319
2010-09-15 07:06:07 51°20.8 2°53.238 17.3612 4.497258 34.630058 -0.025495
2010-09-15 07:06:12 51°20.819 2°53.245 17.3594 4.497258 34.630058 -0.025495
2010-09-15 07:06:17 51°20.838 2°53.253 17.3622 4.499474 34.646676 -0.025495
2010-09-15 07:06:22 51°20.856 2°53.26 17.3632 4.495675 34.613905 -0.025495
2010-09-15 07:06:27 51°20.874 2°53.268 17.3598 4.494302 34.602073 -0.060319
2010-09-15 07:06:32 51°20.892 2°53.277 17.3621 4.493669 34.595988 -0.025495
2010-09-15 07:06:36 51°20.907 2°53.282 17.3606 4.493669 34.596612 -0.060319
2010-09-15 07:06:42 51°20.928 2°53.293 17.3589 4.493669 34.596612 -0.060319
2010-09-15 07:06:47 51°20.946 2°53.302 17.3575 4.492719 34.585302 -0.025495
2010-09-15 07:06:52 51°20.964 2°53.311 17.3571 4.49198 34.580802 -0.025495
2010-09-15 07:06:56 51°20.978 2°53.317 17.358 4.49103 34.571365 -0.060319
2010-09-15 07:07:02 51°21 2°53.328 17.3577 4.490503 34.567439 -0.025495
2010-09-15 07:07:07 51°21.019 2°53.337 17.3546 4.489236 34.555273 -0.060319
2010-09-15 07:07:12 51°21.036 2°53.344 17.3532 4.489236 34.555273 -0.060319
2010-09-15 07:07:17 51°21.054 2°53.354 17.3536 4.488392 34.54924 -0.060319
2010-09-15 07:07:22 51°21.073 2°53.362 17.3558 4.487969 34.5456 -0.060319
2010-09-15 07:07:27 51°21.091 2°53.371 17.3574 4.486492 34.532862 -0.025495
2010-09-15 07:07:32 51°21.109 2°53.379 17.3542 4.48512 34.521657 -0.060319
2010-09-15 07:07:37 51°21.128 2°53.388 17.354 4.483536 34.508632 -0.060319
2010-09-15 07:07:42 51°21.146 2°53.396 17.3537 4.483536 34.508632 -0.060319
2010-09-15 07:07:48 51°21.168 2°53.406 17.3519 4.481848 34.493454 -0.025495
2010-09-15 07:07:52 51°21.183 2°53.413 17.352 4.48037 34.483207 -0.060319
2010-09-15 07:07:56 51°21.197 2°53.419 17.3524 4.479209 34.473822 -0.060319
2010-09-15 07:08:02 51°21.219 2°53.429 17.3517 4.477626 34.460799 -0.060319
2010-09-15 07:08:07 51°21.237 2°53.437 17.3537 4.476992 34.454098 -0.060319
2010-09-15 07:08:12 51°21.255 2°53.446 17.3547 4.476992 34.454098 -0.060319
2010-09-15 07:08:17 51°21.273 2°53.454 17.3538 4.47562 34.443516 -0.060319
2010-09-15 07:08:22 51°21.291 2°53.462 17.3544 4.474143 34.427678 -0.025495
2010-09-15 07:08:27 51°21.31 2°53.47 17.3545 4.474354 34.435086 -0.060319
2010-09-15 07:08:32 51°21.328 2°53.478 17.3558 4.473509 34.426567 -0.025495
2010-09-15 07:08:37 51°21.347 2°53.486 17.3546 4.472982 34.421399 0.009329
2010-09-15 07:08:42 51°21.365 2°53.494 17.3543 4.472982 34.421399 0.009329
2010-09-15 07:08:47 51°21.384 2°53.502 17.3547 4.472137 34.415365 -0.060319
2010-09-15 07:08:52 51°21.402 2°53.508 17.3565 4.471715 34.410485 -0.060319
2010-09-15 07:08:57 51°21.42 2°53.517 17.3571 4.472137 34.414123 0.009329
2010-09-15 07:09:02 51°21.438 2°53.525 17.356 4.471293 34.405606 -0.060319
2010-09-15 07:09:07 51°21.457 2°53.532 17.3548 4.471715 34.409244 -0.060319
2010-09-15 07:09:12 51°21.475 2°53.54 17.3533 4.471715 34.409244 -0.060319
2010-09-15 07:09:17 51°21.493 2°53.545 17.353 4.471293 34.406227 -0.025495
2010-09-15 07:09:23 51°21.516 2°53.553 17.3549 4.470765 34.40106 -0.025495
2010-09-15 07:09:27 51°21.53 2°53.56 17.3551 4.470343 34.398663 0.009329
2010-09-15 07:09:32 51°21.549 2°53.564 17.3517 4.470237 34.397133 0.009329
2010-09-15 07:09:37 51°21.567 2°53.572 17.3508 4.469815 34.392875 -0.025495
2010-09-15 07:09:43 51°21.589 2°53.58 17.3489 4.469815 34.392875 -0.025495
2010-09-15 07:09:47 51°21.605 2°53.585 17.3517 4.468865 34.384691 -0.025495
2010-09-15 07:09:52 51°21.623 2°53.593 17.349 4.469604 34.391677 -0.025495
2010-09-15 07:09:57 51°21.642 2°53.601 17.3488 4.46876 34.384402 -0.060319
2010-09-15 07:10:02 51°21.66 2°53.609 17.3496 4.468971 34.386841 0.009329
2010-09-15 07:10:08 51°21.682 2°53.618 17.3471 4.46971 34.390725 -0.095143
2010-09-15 07:10:12 51°21.697 2°53.625 17.3493 4.46971 34.390725 -0.095143
2010-09-15 07:10:17 51°21.715 2°53.63 17.352 4.467282 34.371672 -0.060319
2010-09-15 07:10:22 51°21.733 2°53.639 17.3506 4.467176 34.373243 -0.025495
2010-09-15 07:10:27 51°21.752 2°53.646 17.3512 4.466332 34.365968 -0.060319
2010-09-15 07:10:32 51°21.77 2°53.655 17.3573 4.466965 34.373904 -0.060319
2010-09-15 07:10:36 51°21.785 2°53.659 17.3597 4.466332 34.366588 -0.025495
2010-09-15 07:10:42 51°21.807 2°53.673 17.3598 4.466332 34.366588 -0.025495
2010-09-15 07:10:47 51°21.825 2°53.679 17.362 4.466016 34.36634 -0.060319
2010-09-15 07:10:52 51°21.844 2°53.686 17.3646 4.465382 34.359024 -0.025495
2010-09-15 07:10:56 51°21.859 2°53.691 17.3701 4.465699 34.361752 -0.025495
2010-09-15 07:11:02 51°21.881 2°53.7 17.3714 4.46591 34.36481 -0.025495
2010-09-15 07:11:07 51°21.899 2°53.708 17.3712 4.465277 34.356255 0.009329
2010-09-15 07:11:12 51°21.918 2°53.713 17.3733 4.465277 34.356255 0.009329
2010-09-15 07:11:17 51°21.937 2°53.72 17.3753 4.465488 34.356215 -0.025495
2010-09-15 07:11:22 51°21.955 2°53.727 17.3759 4.467388 34.370722 -0.060319
2010-09-15 07:11:27 51°21.973 2°53.736 17.3778 4.469498 34.385806 -0.060319
2010-09-15 07:11:32 51°21.992 2°53.741 17.3799 4.469709 34.385144 -0.025495
2010-09-15 07:11:37 51°22.011 2°53.75 17.3799 4.470765 34.392376 -0.060319
2010-09-15 07:11:42 51°22.029 2°53.758 17.3813 4.470765 34.392376 -0.060319
2010-09-15 07:11:47 51°22.048 2°53.766 17.3825 4.47087 34.393285 -0.060319
2010-09-15 07:11:52 51°22.067 2°53.774 17.3848 4.472454 34.404441 -0.060319
2010-09-15 07:11:56 51°22.082 2°53.779 17.3855 4.472137 34.400473 -0.060319
2010-09-15 07:12:02 51°22.103 2°53.791 17.3865 4.472876 34.404976 -0.025495
2010-09-15 07:12:07 51°22.122 2°53.798 17.3876 4.472876 34.403116 -0.095143
2010-09-15 07:12:12 51°22.14 2°53.808 17.3889 4.472876 34.403116 -0.095143
2010-09-15 07:12:17 51°22.159 2°53.816 17.3895 4.475409 34.421831 -0.060319
2010-09-15 07:12:22 51°22.178 2°53.822 17.3897 4.475725 34.424558 -0.060319
2010-09-15 07:12:28 51°22.2 2°53.832 17.3883 4.47562 34.423028 -0.095143
2010-09-15 07:12:32 51°22.215 2°53.839 17.3886 4.475514 34.418397 -0.025495
2010-09-15 07:12:37 51°22.234 2°53.846 17.3871 4.476042 34.422321 -0.095143
2010-09-15 07:12:42 51°22.252 2°53.854 17.3865 4.476042 34.422321 -0.095143
2010-09-15 07:12:48 51°22.275 2°53.865 17.3849 4.476464 34.425337 -0.095143
2010-09-15 07:12:52 51°22.29 2°53.871 17.3827 4.475725 34.418974 -0.060319
2010-09-15 07:12:56 51°22.304 2°53.879 17.3851 4.476253 34.421658 -0.060319
2010-09-15 07:13:02 51°22.326 2°53.888 17.3819 4.47657 34.427486 -0.060319
2010-09-15 07:13:07 51°22.345 2°53.899 17.3781 4.477625 34.432232 -0.095143
2010-09-15 07:13:12 51°22.363 2°53.903 17.3769 4.477625 34.432232 -0.095143
2010-09-15 07:13:16 51°22.377 2°53.91 17.3784 4.477625 34.432853 -0.095143
2010-09-15 07:13:22 51°22.399 2°53.919 17.3738 4.478047 34.43773 -0.095143
2010-09-15 07:13:27 51°22.418 2°53.925 17.3699 4.478259 34.439548 -0.060319
2010-09-15 07:13:32 51°22.436 2°53.932 17.3732 4.477731 34.435623 -0.095143
2010-09-15 07:13:36 51°22.451 2°53.936 17.3654 4.477836 34.437153 -0.095143
2010-09-15 07:13:42 51°22.473 2°53.946 17.3652 4.477836 34.437153 -0.095143
2010-09-15 07:13:47 51°22.491 2°53.953 17.3612 4.47752 34.437529 -0.129967
2010-09-15 07:13:52 51°22.51 2°53.963 17.3606 4.476148 34.429435 -0.095143
2010-09-15 07:13:57 51°22.529 2°53.968 17.3598 4.475514 34.422119 -0.095143
2010-09-15 07:14:02 51°22.547 2°53.977 17.3583 4.47562 34.42551 -0.129967
2010-09-15 07:14:07 51°22.565 2°53.986 17.358 4.474881 34.420388 -0.129967
2010-09-15 07:14:12 51°22.584 2°53.992 17.3566 4.474881 34.420388 -0.129967
2010-09-15 07:14:16 51°22.598 2°53.999 17.3571 4.47467 34.41981 -0.095143
2010-09-15 07:14:22 51°22.62 2°54.009 17.3528 4.473404 34.412003 -0.095143
2010-09-15 07:14:28 51°22.642 2°54.02 17.3462 4.473192 34.412046 -0.129967
2010-09-15 07:14:32 51°22.657 2°54.027 17.347 4.472559 34.409072 -0.095143
2010-09-15 07:14:36 51°22.671 2°54.033 17.3431 4.473087 34.41486 -0.129967
2010-09-15 07:14:42 51°22.693 2°54.045 17.3445 4.473087 34.41486 -0.129967
2010-09-15 07:14:47 51°22.711 2°54.05 17.3429 4.471504 34.402461 -0.129967
2010-09-15 07:14:52 51°22.729 2°54.058 17.3393 4.47182 34.40643 -0.129967
2010-09-15 07:14:56 51°22.744 2°54.064 17.338 4.470659 34.397048 -0.095143
2010-09-15 07:15:02 51°22.766 2°54.073 17.3376 4.471293 34.404986 -0.129967
2010-09-15 07:15:07 51°22.785 2°54.081 17.3328 4.470976 34.403499 -0.095143
2010-09-15 07:15:12 51°22.803 2°54.09 17.3307 4.470976 34.403499 -0.095143
2010-09-15 07:15:17 51°22.822 2°54.097 17.3275 4.470026 34.399657 -0.129967
2010-09-15 07:15:22 51°22.841 2°54.105 17.3312 4.469182 34.394243 -0.095143
2010-09-15 07:15:27 51°22.859 2°54.115 17.3245 4.470449 34.405157 -0.129967
2010-09-15 07:15:32 51°22.878 2°54.122 17.3242 4.467071 34.378534 -0.129967
2010-09-15 07:15:36 51°22.893 2°54.126 17.3317 4.466332 34.374028 -0.095143
2010-09-15 07:15:42 51°22.916 2°54.137 17.3444 4.466332 34.374028 -0.095143
2010-09-15 07:15:47 51°22.934 2°54.144 17.354 4.465593 34.369522 -0.095143
2010-09-15 07:15:52 51°22.953 2°54.153 17.3624 4.465277 34.368654 -0.095143
2010-09-15 07:15:56 51°22.968 2°54.156 17.3674 4.463271 34.352612 -0.060319
2010-09-15 07:16:02 51°22.99 2°54.169 17.3637 4.462955 34.353603 -0.060319
2010-09-15 07:16:07 51°23.009 2°54.175 17.3571 4.461583 34.343018 -0.095143
2010-09-15 07:16:12 51°23.027 2°54.184 17.35 4.461583 34.343018 -0.095143
2010-09-15 07:16:17 51°23.046 2°54.192 17.3431 4.460422 34.334252 -0.095143
2010-09-15 07:16:22 51°23.064 2°54.203 17.3402 4.460105 34.326567 -0.095143
2010-09-15 07:16:27 51°23.084 2°54.207 17.3435 4.462321 34.33885 -0.129967
2010-09-15 07:16:32 51°23.101 2°54.221 17.338 4.46401 34.345345 -0.095143
2010-09-15 07:16:37 51°23.12 2°54.225 17.3399 4.464643 34.346464 -0.129967
2010-09-15 07:16:42 51°23.138 2°54.233 17.3463 4.464643 34.346464 -0.129967
2010-09-15 07:16:47 51°23.157 2°54.239 17.351 4.463271 34.334645 -0.129967
2010-09-15 07:16:52 51°23.175 2°54.243 17.3553 4.462955 34.335014 -0.095143
2010-09-15 07:16:56 51°23.19 2°54.247 17.3601 4.461371 34.323235 -0.060319
2010-09-15 07:17:02 51°23.213 2°54.252 17.3642 4.459788 34.31455 -0.095143
2010-09-15 07:17:07 51°23.232 2°54.255 17.3658 4.459155 34.310333 -0.129967
2010-09-15 07:17:12 51°23.252 2°54.259 17.3695 4.459155 34.310333 -0.129967
2010-09-15 07:17:17 51°23.27 2°54.262 17.3748 4.457677 34.29946 -0.129967
2010-09-15 07:17:22 51°23.289 2°54.267 17.3795 4.457466 34.296404 -0.129967
2010-09-15 07:17:27 51°23.308 2°54.267 17.3838 4.458733 34.30422 -0.164791
2010-09-15 07:17:32 51°23.327 2°54.27 17.39 4.46021 34.313235 -0.129967
2010-09-15 07:17:37 51°23.346 2°54.272 17.397 4.460527 34.312868 -0.129967
2010-09-15 07:17:42 51°23.365 2°54.273 17.4009 4.460527 34.312868 -0.129967
2010-09-15 07:17:47 51°23.385 2°54.277 17.4052 4.461793 34.318824 -0.164791
2010-09-15 07:17:52 51°23.403 2°54.276 17.4091 4.462005 34.318786 -0.164791
2010-09-15 07:17:57 51°23.422 2°54.281 17.4149 4.462216 34.31751 -0.129967
2010-09-15 07:18:03 51°23.445 2°54.283 17.4197 4.463693 34.325901 -0.129967
2010-09-15 07:18:07 51°23.461 2°54.286 17.4218 4.465698 34.338216 -0.164791
2010-09-15 07:18:12 51°23.48 2°54.287 17.4226 4.465698 34.338216 -0.164791
2010-09-15 07:18:17 51°23.499 2°54.291 17.4207 4.466226 34.33719 -0.164791
2010-09-15 07:18:22 51°23.517 2°54.294 17.4178 4.46707 34.339508 -0.164791
2010-09-15 07:18:27 51°23.536 2°54.299 17.4147 4.468442 34.346368 -0.199615
2010-09-15 07:18:32 51°23.555 2°54.3 17.4118 4.468653 34.34138 -0.199615
2010-09-15 07:18:37 51°23.573 2°54.304 17.405 4.469603 34.346461 -0.164791
2010-09-15 07:18:42 51°23.592 2°54.307 17.4 4.469603 34.346461 -0.164791
2010-09-15 07:18:48 51°23.614 2°54.31 17.3912 4.471503 34.360333 -0.164791
2010-09-15 07:18:52 51°23.629 2°54.315 17.3855 4.470236 34.345725 -0.164791
2010-09-15 07:18:56 51°23.644 2°54.316 17.381 4.470553 34.34783 -0.164791
2010-09-15 07:19:02 51°23.667 2°54.319 17.3731 4.470764 34.348409 -0.164791
2010-09-15 07:19:07 51°23.685 2°54.323 17.3676 4.469603 34.341513 -0.129967
2010-09-15 07:19:12 51°23.703 2°54.324 17.3609 4.469603 34.341513 -0.129967
2010-09-15 07:19:17 51°23.722 2°54.329 17.3559 4.467809 34.327314 -0.129967
2010-09-15 07:19:22 51°23.741 2°54.332 17.3511 4.466859 34.32285 -0.164791
2010-09-15 07:19:27 51°23.76 2°54.334 17.3525 4.46517 34.313884 -0.129967
2010-09-15 07:19:32 51°23.779 2°54.337 17.3508 4.46306 34.299428 -0.060319
2010-09-15 07:19:37 51°23.798 2°54.339 17.3524 4.459999 34.281121 -0.025495
2010-09-15 07:19:42 51°23.816 2°54.341 17.3543 4.459999 34.281121 -0.025495
2010-09-15 07:19:47 51°23.835 2°54.344 17.3551 4.456305 34.254889 -0.025495
2010-09-15 07:19:52 51°23.854 2°54.345 17.3554 4.452294 34.226546 0.009329
2010-09-15 07:19:56 51°23.869 2°54.348 17.3585 4.449233 34.202672 -0.060319
2010-09-15 07:20:02 51°23.892 2°54.35 17.3664 4.446595 34.187979 -0.025495
2010-09-15 07:20:07 51°23.911 2°54.353 17.3703 4.443956 34.168351 0.009329
2010-09-15 07:20:12 51°23.929 2°54.356 17.3763 4.443956 34.168351 0.009329
2010-09-15 07:20:16 51°23.944 2°54.356 17.3819 4.442056 34.152001 0.009329
2010-09-15 07:20:22 51°23.967 2°54.362 17.3845 4.441212 34.147197 0.009329
2010-09-15 07:20:27 51°23.985 2°54.363 17.3892 4.438996 34.127508 -0.025495
2010-09-15 07:20:32 51°24.004 2°54.366 17.3904 4.438679 34.122937 0.044153
2010-09-15 07:20:37 51°24.023 2°54.367 17.3911 4.43794 34.114119 0.009329
2010-09-15 07:20:42 51°24.041 2°54.369 17.3929 4.43794 34.114119 0.009329
2010-09-15 07:20:47 51°24.06 2°54.372 17.3934 4.438468 34.116815 0.009329
2010-09-15 07:20:52 51°24.079 2°54.373 17.3918 4.440156 34.126422 -0.025495
2010-09-15 07:20:57 51°24.097 2°54.375 17.3911 4.440368 34.125162 -0.025495
2010-09-15 07:21:02 51°24.116 2°54.377 17.3902 4.441634 34.131751 -0.025495
2010-09-15 07:21:08 51°24.138 2°54.378 17.3887 4.441317 34.125338 -0.060319
2010-09-15 07:21:12 51°24.153 2°54.381 17.3864 4.441317 34.125338 -0.060319
2010-09-15 07:21:16 51°24.168 2°54.384 17.3877 4.441317 34.121034 -0.025495
2010-09-15 07:21:22 51°24.191 2°54.387 17.3871 4.440684 34.113745 0.009329
2010-09-15 07:21:28 51°24.213 2°54.39 17.3872 4.423902 33.968883 -0.025495
2010-09-15 07:21:32 51°24.228 2°54.393 17.3861 4.439101 34.099518 -0.060319
2010-09-15 07:21:36 51°24.243 2°54.396 17.3855 4.438573 34.093752 -0.025495
2010-09-15 07:21:42 51°24.266 2°54.399 17.3851 4.438573 34.093752 -0.025495
2010-09-15 07:21:47 51°24.285 2°54.402 17.3882 4.438045 34.091672 -0.025495
2010-09-15 07:21:52 51°24.303 2°54.406 17.3869 4.437201 34.084412 0.009329
2010-09-15 07:21:57 51°24.323 2°54.41 17.3878 4.436568 34.078968 -0.025495
2010-09-15 07:22:02 51°24.342 2°54.412 17.3904 4.436462 34.076832 0.009329
2010-09-15 07:22:07 51°24.36 2°54.417 17.3886 4.436884 34.084146 0.044153
2010-09-15 07:22:12 51°24.379 2°54.417 17.3896 4.436884 34.084146 0.044153
2010-09-15 07:22:17 51°24.398 2°54.419 17.3935 4.435829 34.07323 0.044153
2010-09-15 07:22:22 51°24.417 2°54.423 17.3954 4.436251 34.078087 0.044153
2010-09-15 07:22:27 51°24.435 2°54.425 17.3958 4.435934 34.071068 0.078977
2010-09-15 07:22:32 51°24.454 2°54.428 17.396 4.435829 34.072616 0.009329
2010-09-15 07:22:36 51°24.469 2°54.428 17.3978 4.435829 34.072616 0.044153
2010-09-15 07:22:42 51°24.492 2°54.433 17.4005 4.435829 34.072616 0.044153
2010-09-15 07:22:47 51°24.511 2°54.434 17.4025 4.43699 34.082597 0.044153
2010-09-15 07:22:52 51°24.53 2°54.438 17.4033 4.437306 34.084091 0.009329
2010-09-15 07:22:56 51°24.545 2°54.439 17.4058 4.436251 34.07379 0.009329
2010-09-15 07:23:02 51°24.568 2°54.443 17.4064 4.437306 34.081636 0.044153
2010-09-15 07:23:07 51°24.587 2°54.444 17.4062 4.435934 34.068 0.009329
2010-09-15 07:23:12 51°24.606 2°54.445 17.4095 4.435934 34.068 0.009329
2010-09-15 07:23:17 51°24.624 2°54.449 17.4121 4.437517 34.080381 0.044153
2010-09-15 07:23:22 51°24.644 2°54.452 17.4128 4.43699 34.074004 -0.025495
2010-09-15 07:23:28 51°24.666 2°54.455 17.4153 4.43699 34.07339 0.009329
2010-09-15 07:23:32 51°24.681 2°54.456 17.4166 4.437834 34.078806 0.009329
2010-09-15 07:23:37 51°24.7 2°54.459 17.419 4.439101 34.089078 0.009329
2010-09-15 07:23:42 51°24.719 2°54.462 17.4207 4.439101 34.089078 0.009329
2010-09-15 07:23:47 51°24.739 2°54.464 17.425 4.439312 34.089665 0.009329
2010-09-15 07:23:52 51°24.757 2°54.469 17.4272 4.440578 34.096867 0.009329
2010-09-15 07:23:56 51°24.774 2°54.474 17.4298 4.441 34.099882 0.009329
2010-09-15 07:24:02 51°24.796 2°54.474 17.4317 4.442372 34.109832 0.044153
2010-09-15 07:24:07 51°24.815 2°54.479 17.4302 4.443533 34.117967 0.009329
2010-09-15 07:24:12 51°24.834 2°54.478 17.4265 4.443533 34.117967 0.009329
2010-09-15 07:24:16 51°24.849 2°54.481 17.419 4.444694 34.126717 0.009329
2010-09-15 07:24:22 51°24.872 2°54.484 17.4103 4.445961 34.135758 0.009329
2010-09-15 07:24:27 51°24.89 2°54.484 17.4089 4.447227 34.143571 -0.025495
2010-09-15 07:24:32 51°24.908 2°54.489 17.3991 4.450077 34.165602 -0.025495
2010-09-15 07:24:37 51°24.927 2°54.49 17.3932 4.451871 34.179178 -0.025495
2010-09-15 07:24:42 51°24.946 2°54.493 17.3907 4.451871 34.179178 -0.025495
2010-09-15 07:24:47 51°24.964 2°54.496 17.3833 4.451132 34.172213 0.009329
2010-09-15 07:24:52 51°24.982 2°54.497 17.3812 4.451766 34.178271 0.009329
2010-09-15 07:24:57 51°25.001 2°54.499 17.3825 4.450077 34.166217 0.044153
2010-09-15 07:25:02 51°25.019 2°54.503 17.3795 4.444166 34.118496 0.078977
2010-09-15 07:25:07 51°25.038 2°54.505 17.38 4.441845 34.104068 0.078977
2010-09-15 07:25:12 51°25.056 2°54.509 17.3788 4.441845 34.104068 0.078977
2010-09-15 07:25:16 51°25.071 2°54.51 17.3781 4.434879 34.048503 0.148626
2010-09-15 07:25:22 51°25.093 2°54.511 17.3807 4.430024 34.011688 0.044153
2010-09-15 07:25:27 51°25.111 2°54.515 17.3832 4.430552 34.021123 0.113802
2010-09-15 07:25:32 51°25.13 2°54.518 17.3824 4.425591 33.983394 0.148626
2010-09-15 07:25:36 51°25.144 2°54.52 17.3838 4.41947 33.931407 0.148626
2010-09-15 07:25:42 51°25.167 2°54.523 17.3851 4.41947 33.931407 0.148626
2010-09-15 07:25:47 51°25.185 2°54.527 17.3855 4.415776 33.900894 0.148626
2010-09-15 07:25:52 51°25.203 2°54.53 17.3912 4.411449 33.867384 0.148626
2010-09-15 07:25:57 51°25.222 2°54.533 17.3917 4.406594 33.826293 0.148626
2010-09-15 07:26:02 51°25.24 2°54.538 17.3907 4.405855 33.819948 0.148626
2010-09-15 07:26:08 51°25.262 2°54.537 17.3929 4.402794 33.793663 0.148626
2010-09-15 07:26:12 51°25.277 2°54.539 17.3943 4.402794 33.793663 0.148626
2010-09-15 07:26:17 51°25.295 2°54.54 17.394 4.400578 33.772197 0.148626
2010-09-15 07:26:22 51°25.314 2°54.542 17.3955 4.396462 33.738075 0.148626
2010-09-15 07:26:27 51°25.333 2°54.545 17.3968 4.394351 33.717525 0.18345
2010-09-15 07:26:32 51°25.352 2°54.547 17.396 4.39319 33.70756 0.218274
2010-09-15 07:26:37 51°25.37 2°54.552 17.3983 4.390974 33.686111 0.218274
2010-09-15 07:26:42 51°25.389 2°54.552 17.3981 4.390974 33.686111 0.218274
2010-09-15 07:26:47 51°25.408 2°54.557 17.399 4.389707 33.678275 0.148626
2010-09-15 07:26:52 51°25.426 2°54.555 17.4014 4.388863 33.665572 0.18345
2010-09-15 07:26:57 51°25.445 2°54.561 17.4005 4.387385 33.651682 0.18345
2010-09-15 07:27:02 51°25.464 2°54.561 17.3999 4.38633 33.643233 0.148626
2010-09-15 07:27:07 51°25.482 2°54.566 17.4008 4.385908 33.637794 0.148626
2010-09-15 07:27:12 51°25.501 2°54.568 17.4026 4.385908 33.637794 0.148626
2010-09-15 07:27:17 51°25.52 2°54.571 17.403 4.38538 33.632661 0.148626
2010-09-15 07:27:22 51°25.538 2°54.573 17.4035 4.384641 33.625113 0.18345
2010-09-15 07:27:27 51°25.556 2°54.573 17.405 4.383269 33.612133 0.18345
2010-09-15 07:27:32 51°25.575 2°54.575 17.405 4.384008 33.616654 0.18345
2010-09-15 07:27:36 51°25.59 2°54.577 17.4051 4.382741 33.605187 0.148626
2010-09-15 07:27:42 51°25.612 2°54.58 17.4075 4.382741 33.605187 0.148626
2010-09-15 07:27:48 51°25.634 2°54.581 17.4096 4.382319 33.602172 0.148626
2010-09-15 07:27:52 51°25.649 2°54.585 17.4102 4.380736 33.588595 0.148626
2010-09-15 07:27:56 51°25.663 2°54.585 17.4127 4.380103 33.580746 0.18345
2010-09-15 07:28:02 51°25.685 2°54.591 17.4139 4.380208 33.581047 0.148626
2010-09-15 07:28:07 51°25.703 2°54.593 17.4138 4.379047 33.571092 0.113802
2010-09-15 07:28:12 51°25.721 2°54.596 17.4139 4.379047 33.571092 0.113802
2010-09-15 07:28:17 51°25.739 2°54.6 17.4152 4.378836 33.569886 0.078977
2010-09-15 07:28:22 51°25.758 2°54.601 17.4151 4.377675 33.557516 0.148626
2010-09-15 07:28:27 51°25.777 2°54.606 17.4179 4.380103 33.57712 0.113802
2010-09-15 07:28:32 51°25.795 2°54.608 17.4181 4.379681 33.572291 0.113802
2010-09-15 07:28:36 51°25.81 2°54.611 17.4197 4.379997 33.575006 0.148626
2010-09-15 07:28:42 51°25.833 2°54.615 17.4191 4.379997 33.575006 0.148626
2010-09-15 07:28:47 51°25.851 2°54.62 17.4195 4.379258 33.56686 0.113802
2010-09-15 07:28:52 51°25.87 2°54.621 17.4214 4.379364 33.56716 0.113802
2010-09-15 07:28:56 51°25.885 2°54.622 17.4221 4.379469 33.566253 0.148626
2010-09-15 07:29:02 51°25.907 2°54.627 17.4258 4.379364 33.565348 0.148626
2010-09-15 07:29:07 51°25.926 2°54.627 17.4231 4.379047 33.561426 0.18345
2010-09-15 07:29:12 51°25.945 2°54.629 17.4216 4.379047 33.561426 0.18345
2010-09-15 07:29:17 51°25.964 2°54.632 17.422 4.378625 33.555392 0.113802
2010-09-15 07:29:22 51°25.983 2°54.635 17.4231 4.378203 33.552378 0.113802
2010-09-15 07:29:27 51°26.002 2°54.637 17.4211 4.377992 33.551776 0.148626
2010-09-15 07:29:32 51°26.021 2°54.639 17.4225 4.378203 33.549963 0.148626
2010-09-15 07:29:36 51°26.036 2°54.642 17.4257 4.378097 33.550266 0.148626
2010-09-15 07:29:42 51°26.058 2°54.644 17.4243 4.378097 33.550266 0.148626
2010-09-15 07:29:48 51°26.08 2°54.648 17.4254 4.377675 33.544233 0.113802
2010-09-15 07:29:52 51°26.095 2°54.65 17.4269 4.377042 33.53941 0.113802
2010-09-15 07:29:56 51°26.111 2°54.653 17.4269 4.376831 33.537601 0.148626
2010-09-15 07:30:02 51°26.134 2°54.657 17.4294 4.37662 33.534585 0.113802
2010-09-15 07:30:07 51°26.153 2°54.66 17.4338 4.375142 33.52313 0.113802
2010-09-15 07:30:12 51°26.172 2°54.665 17.4343 4.375142 33.52313 0.113802
2010-09-15 07:30:16 51°26.187 2°54.665 17.4363 4.375459 33.524637 0.148626
2010-09-15 07:30:22 51°26.21 2°54.669 17.4374 4.374931 33.52313 0.148626
2010-09-15 07:30:27 51°26.229 2°54.673 17.437 4.376092 33.528254 0.148626
2010-09-15 07:30:32 51°26.248 2°54.675 17.4391 4.375881 33.526445 0.148626
2010-09-15 07:30:37 51°26.267 2°54.677 17.4417 4.377781 33.540311 0.148626
2010-09-15 07:30:42 51°26.286 2°54.68 17.4431 4.377781 33.540311 0.148626
2010-09-15 07:30:47 51°26.304 2°54.682 17.4461 4.376409 33.527951 0.148626
2010-09-15 07:30:52 51°26.323 2°54.686 17.4477 4.377042 33.532171 0.113802
2010-09-15 07:30:56 51°26.338 2°54.687 17.4488 4.377147 33.531266 0.148626
2010-09-15 07:31:02 51°26.361 2°54.692 17.4513 4.377253 33.530964 0.148626
2010-09-15 07:31:07 51°26.38 2°54.695 17.4536 4.377886 33.536389 0.113802
2010-09-15 07:31:12 51°26.398 2°54.698 17.4565 4.377886 33.536389 0.113802
2010-09-15 07:31:16 51°26.413 2°54.699 17.4587 4.378625 33.539703 0.148626
2010-09-15 07:31:22 51°26.435 2°54.704 17.4599 4.378941 33.542416 0.218274
2010-09-15 07:31:27 51°26.454 2°54.706 17.4601 4.380947 33.555975 0.18345
2010-09-15 07:31:32 51°26.472 2°54.71 17.4607 4.38158 33.562004 0.18345
2010-09-15 07:31:36 51°26.487 2°54.714 17.4601 4.383479 33.574658 0.18345
2010-09-15 07:31:42 51°26.509 2°54.717 17.4601 4.383479 33.574658 0.18345
2010-09-15 07:31:47 51°26.527 2°54.721 17.459 4.384429 33.582795 0.18345
2010-09-15 07:31:52 51°26.546 2°54.721 17.4597 4.386118 33.592431 0.218274
2010-09-15 07:31:57 51°26.564 2°54.726 17.4574 4.386857 33.596949 0.218274
2010-09-15 07:32:02 51°26.583 2°54.727 17.4586 4.388123 33.605986 0.218274
2010-09-15 07:32:07 51°26.602 2°54.732 17.458 4.388967 33.612011 0.218274
2010-09-15 07:32:12 51°26.621 2°54.734 17.4575 4.388967 33.612011 0.218274
2010-09-15 07:32:16 51°26.637 2°54.735 17.456 4.390339 33.624973 0.253098
2010-09-15 07:32:22 51°26.66 2°54.74 17.4569 4.390973 33.629189 0.218274
2010-09-15 07:32:28 51°26.683 2°54.746 17.4581 4.391711 33.636123 0.218274
2010-09-15 07:32:32 51°26.698 2°54.747 17.4562 4.392661 33.643052 0.218274
2010-09-15 07:32:36 51°26.713 2°54.748 17.457 4.392767 33.646375 0.218274
2010-09-15 07:32:42 51°26.735 2°54.753 17.4576 4.392767 33.646375 0.218274
2010-09-15 07:32:47 51°26.755 2°54.755 17.4562 4.393611 33.65119 0.253098
2010-09-15 07:32:52 51°26.774 2°54.759 17.4563 4.393822 33.652998 0.253098
2010-09-15 07:32:56 51°26.789 2°54.761 17.4548 4.394666 33.660232 0.253098
2010-09-15 07:33:02 51°26.812 2°54.765 17.4557 4.395827 33.67139 0.253098
2010-09-15 07:33:07 51°26.831 2°54.767 17.4565 4.394983 33.662945 0.253098
2010-09-15 07:33:12 51°26.851 2°54.767 17.4583 4.394983 33.662945 0.253098
2010-09-15 07:33:17 51°26.87 2°54.772 17.4579 4.3953 33.666263 0.253098
2010-09-15 07:33:22 51°26.889 2°54.773 17.4578 4.395511 33.669282 0.253098
2010-09-15 07:33:27 51°26.908 2°54.774 17.4598 4.395722 33.670486 0.287922
2010-09-15 07:33:32 51°26.927 2°54.778 17.4604 4.395933 33.6729 0.253098
2010-09-15 07:33:36 51°26.943 2°54.778 17.4626 4.396777 33.681346 0.287922
2010-09-15 07:33:42 51°26.966 2°54.78 17.4637 4.396777 33.681346 0.287922
2010-09-15 07:33:47 51°26.985 2°54.784 17.4648 4.397727 33.687669 0.287922
2010-09-15 07:33:52 51°27.004 2°54.786 17.4659 4.396883 33.681645 0.287922
2010-09-15 07:33:56 51°27.02 2°54.787 17.4653 4.397833 33.687363 0.322746
2010-09-15 07:34:02 51°27.043 2°54.792 17.4659 4.397411 33.685561 0.287922
2010-09-15 07:34:07 51°27.063 2°54.794 17.4671 4.39741 33.68314 0.322746
2010-09-15 07:34:12 51°27.082 2°54.798 17.4689 4.39741 33.68314 0.322746
2010-09-15 07:34:16 51°27.097 2°54.798 17.47 4.398044 33.68796 0.35757
2010-09-15 07:34:22 51°27.12 2°54.802 17.469 4.398149 33.687654 0.287922
2010-09-15 07:34:27 51°27.14 2°54.805 17.4728 4.398677 33.689754 0.322746
2010-09-15 07:34:32 51°27.159 2°54.81 17.4731 4.399943 33.700606 0.322746
2010-09-15 07:34:37 51°27.178 2°54.813 17.4729 4.399099 33.693976 0.392394
2010-09-15 07:34:42 51°27.198 2°54.817 17.4752 4.399099 33.693976 0.392394
2010-09-15 07:34:48 51°27.221 2°54.82 17.4763 4.399521 33.695777 0.322746
2010-09-15 07:34:52 51°27.236 2°54.825 17.477 4.399416 33.69124 0.322746